Wetterdaten: Montag, 24.07.2023
Datum Zeit Temp. Aussen Temp. o. S. Temp +5cm Feuchte Auss Luftdruck Regen Sonnenschein Regendauer Solar Windben Empfang
24.07.2023 00:00 18,6 C 17,8 C 13,9 C 97 % 1007,0 hPa 0,0 l/m 0 min 0 min 0 W/m 9,7 km/h (2 Bft) 95,74 %
24.07.2023 00:02 18,6 C 17,8 C 13,9 C 97 % 1007,0 hPa 0,0 l/m 0 min 0 min 0 W/m 9,7 km/h (2 Bft) 97,73 %
24.07.2023 00:04 18,6 C 17,8 C 13,9 C 97 % 1007,0 hPa 0,0 l/m 0 min 2 min 0 W/m 9,7 km/h (2 Bft) 93,62 %
24.07.2023 00:08 18,7 C 17,8 C 13,9 C 97 % 1007,0 hPa 0,0 l/m 0 min 0 min 0 W/m 12,9 km/h (3 Bft) 95,35 %
24.07.2023 00:10 18,7 C 17,8 C 13,9 C 97 % 1007,1 hPa 0,0 l/m 0 min 0 min 0 W/m 12,9 km/h (3 Bft) 93,62 %
24.07.2023 00:12 18,6 C 17,8 C 13,9 C 97 % 1007,0 hPa 0,0 l/m 0 min 0 min 0 W/m 9,7 km/h (2 Bft) 93,62 %
24.07.2023 00:14 18,6 C 17,8 C 13,9 C 97 % 1007,0 hPa 0,0 l/m 0 min 2 min 0 W/m 25,7 km/h (4 Bft) 93,62 %
24.07.2023 00:16 18,6 C 17,8 C 13,9 C 97 % 1007,0 hPa 0,0 l/m 0 min 2 min 0 W/m 16,1 km/h (3 Bft) 95,74 %
24.07.2023 00:18 18,6 C 17,8 C 13,9 C 97 % 1007,0 hPa 0,0 l/m 0 min 2 min 0 W/m 22,5 km/h (4 Bft) 93,62 %
24.07.2023 00:20 18,6 C 17,8 C 13,9 C 97 % 1006,9 hPa 0,0 l/m 0 min 2 min 0 W/m 19,3 km/h (3 Bft) 93,62 %
24.07.2023 00:22 18,6 C 17,8 C 13,9 C 97 % 1006,9 hPa 0,0 l/m 0 min 0 min 0 W/m 9,7 km/h (2 Bft) 91,49 %
24.07.2023 00:24 18,6 C 17,8 C 13,9 C 97 % 1006,9 hPa 0,0 l/m 0 min 2 min 0 W/m 16,1 km/h (3 Bft) 95,74 %
24.07.2023 00:26 18,6 C 17,8 C 13,9 C 97 % 1007,0 hPa 0,0 l/m 0 min 2 min 0 W/m 16,1 km/h (3 Bft) 91,49 %
24.07.2023 00:28 18,6 C 17,8 C 13,9 C 97 % 1006,9 hPa 0,2 l/m 0 min 2 min 0 W/m 22,5 km/h (4 Bft) 97,87 %
24.07.2023 00:30 18,6 C 17,2 C 13,9 C 97 % 1007,0 hPa 0,2 l/m 0 min 2 min 0 W/m 22,5 km/h (4 Bft) 97,83 %
24.07.2023 00:32 18,6 C 17,2 C 13,9 C 97 % 1007,0 hPa 0,0 l/m 0 min 2 min 0 W/m 12,9 km/h (3 Bft) 97,87 %
24.07.2023 00:34 18,5 C 17,2 C 13,9 C 97 % 1007,0 hPa 0,0 l/m 0 min 2 min 0 W/m 19,3 km/h (3 Bft) 97,87 %
24.07.2023 00:36 18,5 C 17,2 C 13,9 C 97 % 1007,0 hPa 0,0 l/m 0 min 2 min 0 W/m 12,9 km/h (3 Bft) 97,87 %
24.07.2023 00:38 18,5 C 17,2 C 13,9 C 97 % 1007,0 hPa 0,0 l/m 0 min 2 min 0 W/m 12,9 km/h (3 Bft) 95,74 %
24.07.2023 00:40 18,4 C 17,2 C 13,9 C 96 % 1007,0 hPa 0,0 l/m 0 min 2 min 0 W/m 12,9 km/h (3 Bft) 95,74 %
24.07.2023 00:42 18,4 C 17,2 C 13,9 C 96 % 1007,0 hPa 0,0 l/m 0 min 2 min 0 W/m 12,9 km/h (3 Bft) 97,87 %
24.07.2023 00:44 18,4 C 17,2 C 13,9 C 96 % 1007,1 hPa 0,2 l/m 0 min 2 min 0 W/m 16,1 km/h (3 Bft) 97,87 %
24.07.2023 00:46 18,4 C 17,2 C 13,9 C 96 % 1007,0 hPa 0,2 l/m 0 min 2 min 0 W/m 16,1 km/h (3 Bft) 95,65 %
24.07.2023 00:48 18,4 C 17,2 C 13,9 C 96 % 1007,0 hPa 0,0 l/m 0 min 2 min 0 W/m 16,1 km/h (3 Bft) 95,74 %
24.07.2023 00:50 18,4 C 17,2 C 13,9 C 96 % 1006,9 hPa 0,0 l/m 0 min 0 min 0 W/m 19,3 km/h (3 Bft) 97,87 %
24.07.2023 00:52 18,4 C 17,2 C 13,9 C 96 % 1006,8 hPa 0,0 l/m 0 min 0 min 0 W/m 19,3 km/h (3 Bft) 95,74 %
24.07.2023 00:54 18,3 C 17,2 C 13,3 C 96 % 1006,8 hPa 0,0 l/m 0 min 2 min 0 W/m 12,9 km/h (3 Bft) 97,87 %
24.07.2023 00:56 18,3 C 17,2 C 13,3 C 96 % 1006,8 hPa 0,0 l/m 0 min 2 min 0 W/m 6,4 km/h (2 Bft) 95,74 %
24.07.2023 00:58 18,3 C 17,2 C 13,3 C 96 % 1006,8 hPa 0,0 l/m 0 min 0 min 0 W/m 6,4 km/h (2 Bft) 100,00 %
24.07.2023 01:00 18,3 C 17,2 C 13,9 C 96 % 1006,7 hPa 0,0 l/m 0 min 0 min 0 W/m 3,2 km/h (1 Bft) 95,65 %
24.07.2023 01:02 18,3 C 17,2 C 13,9 C 97 % 1006,7 hPa 0,0 l/m 0 min 0 min 0 W/m 6,4 km/h (2 Bft) 100,00 %
24.07.2023 01:04 18,3 C 17,2 C 13,3 C 97 % 1006,6 hPa 0,0 l/m 0 min 0 min 0 W/m 3,2 km/h (1 Bft) 100,00 %
24.07.2023 01:06 18,3 C 17,2 C 13,9 C 97 % 1006,6 hPa 0,0 l/m 0 min 0 min 0 W/m 12,9 km/h (3 Bft) 100,00 %
24.07.2023 01:08 18,3 C 17,2 C 13,9 C 97 % 1006,6 hPa 0,0 l/m 0 min 0 min 0 W/m 9,7 km/h (2 Bft) 100,00 %
24.07.2023 01:10 18,3 C 17,2 C 13,9 C 97 % 1006,5 hPa 0,0 l/m 0 min 0 min 0 W/m 9,7 km/h (2 Bft) 97,87 %
24.07.2023 01:12 18,3 C 17,2 C 13,9 C 97 % 1006,5 hPa 0,0 l/m 0 min 0 min 0 W/m 19,3 km/h (3 Bft) 100,00 %
24.07.2023 01:14 18,2 C 17,2 C 13,3 C 97 % 1006,5 hPa 0,0 l/m 0 min 0 min 0 W/m 12,9 km/h (3 Bft) 100,00 %
24.07.2023 01:16 18,2 C 16,7 C 13,3 C 97 % 1006,5 hPa 0,0 l/m 0 min 0 min 0 W/m 6,4 km/h (2 Bft) 100,00 %
24.07.2023 01:18 18,2 C 16,7 C 13,3 C 97 % 1006,5 hPa 0,0 l/m 0 min 0 min 0 W/m 6,4 km/h (2 Bft) 100,00 %
24.07.2023 01:20 18,2 C 16,7 C 13,3 C 97 % 1006,5 hPa 0,0 l/m 0 min 0 min 0 W/m 9,7 km/h (2 Bft) 100,00 %
24.07.2023 01:22 18,2 C 16,7 C 13,3 C 97 % 1006,5 hPa 0,0 l/m 0 min 0 min 0 W/m 6,4 km/h (2 Bft) 97,87 %
24.07.2023 01:24 18,2 C 16,7 C 13,3 C 97 % 1006,5 hPa 0,0 l/m 0 min 0 min 0 W/m 9,7 km/h (2 Bft) 100,00 %
24.07.2023 01:26 18,2 C 16,7 C 13,3 C 97 % 1006,5 hPa 0,0 l/m 0 min 0 min 0 W/m 6,4 km/h (2 Bft) 100,00 %
24.07.2023 01:28 18,1 C 16,7 C 13,3 C 97 % 1006,5 hPa 0,0 l/m 0 min 0 min 0 W/m 6,4 km/h (2 Bft) 100,00 %
24.07.2023 01:30 18,2 C 16,7 C 13,3 C 97 % 1006,5 hPa 0,0 l/m 0 min 0 min 0 W/m 6,4 km/h (2 Bft) 100,00 %
24.07.2023 01:32 18,2 C 17,2 C 13,3 C 97 % 1006,4 hPa 0,0 l/m 0 min 0 min 0 W/m 3,2 km/h (1 Bft) 95,74 %
24.07.2023 01:34 18,2 C 17,2 C 13,3 C 97 % 1006,4 hPa 0,0 l/m 0 min 0 min 0 W/m 3,2 km/h (1 Bft) 100,00 %
24.07.2023 01:36 18,2 C 17,2 C 13,9 C 97 % 1006,4 hPa 0,0 l/m 0 min 0 min 0 W/m 6,4 km/h (2 Bft) 100,00 %
24.07.2023 01:38 18,2 C 17,2 C 13,9 C 97 % 1006,4 hPa 0,0 l/m 0 min 0 min 0 W/m 3,2 km/h (1 Bft) 100,00 %
24.07.2023 01:40 18,2 C 17,2 C 13,9 C 97 % 1006,4 hPa 0,0 l/m 0 min 0 min 0 W/m 6,4 km/h (2 Bft) 100,00 %
24.07.2023 01:42 18,2 C 17,2 C 13,9 C 97 % 1006,3 hPa 0,0 l/m 0 min 0 min 0 W/m 6,4 km/h (2 Bft) 97,87 %
24.07.2023 01:44 18,2 C 17,2 C 13,9 C 97 % 1006,3 hPa 0,0 l/m 0 min 0 min 0 W/m 3,2 km/h (1 Bft) 100,00 %
24.07.2023 01:46 18,2 C 17,2 C 13,9 C 97 % 1006,3 hPa 0,0 l/m 0 min 0 min 0 W/m 3,2 km/h (1 Bft) 97,87 %
24.07.2023 01:48 18,2 C 17,2 C 13,9 C 97 % 1006,2 hPa 0,0 l/m 0 min 0 min 0 W/m 9,7 km/h (2 Bft) 97,87 %
24.07.2023 01:50 18,2 C 17,2 C 13,3 C 97 % 1006,2 hPa 0,0 l/m 0 min 0 min 0 W/m 9,7 km/h (2 Bft) 97,87 %
24.07.2023 01:52 18,2 C 17,2 C 13,3 C 97 % 1006,2 hPa 0,0 l/m 0 min 0 min 0 W/m 3,2 km/h (1 Bft) 97,87 %
24.07.2023 01:54 18,2 C 17,2 C 13,3 C 97 % 1006,2 hPa 0,0 l/m 0 min 0 min 0 W/m 6,4 km/h (2 Bft) 97,87 %
24.07.2023 01:56 18,2 C 17,2 C 13,3 C 97 % 1006,2 hPa 0,0 l/m 0 min 0 min 0 W/m 0,0 km/h (0 Bft) 95,65 %
24.07.2023 01:58 18,2 C 16,7 C 13,3 C 97 % 1006,1 hPa 0,0 l/m 0 min 0 min 0 W/m 0,0 km/h (0 Bft) 97,87 %
24.07.2023 02:00 18,1 C 16,7 C 13,3 C 97 % 1006,1 hPa 0,0 l/m 0 min 0 min 0 W/m 0,0 km/h (0 Bft) 97,87 %
24.07.2023 02:06 18,1 C 16,7 C 13,3 C 97 % 1006,0 hPa 0,0 l/m 0 min 0 min 0 W/m 3,2 km/h (1 Bft) 100,00 %
24.07.2023 02:08 18,1 C 16,7 C 13,3 C 97 % 1005,9 hPa 0,0 l/m 0 min 0 min 0 W/m 3,2 km/h (1 Bft) 91,30 %
24.07.2023 02:10 18,1 C 16,7 C 13,3 C 97 % 1006,0 hPa 0,0 l/m 0 min 0 min 0 W/m 3,2 km/h (1 Bft) 97,22 %
24.07.2023 02:12 18,1 C 16,7 C 13,3 C 97 % 1005,9 hPa 0,0 l/m 0 min 0 min 0 W/m 3,2 km/h (1 Bft) 97,83 %
24.07.2023 02:14 18,0 C 16,7 C 13,3 C 97 % 1005,8 hPa 0,0 l/m 0 min 0 min 0 W/m 0,0 km/h (0 Bft) 97,87 %
24.07.2023 02:16 18,0 C 16,7 C 13,3 C 97 % 1005,9 hPa 0,0 l/m 0 min 0 min 0 W/m 0,0 km/h (0 Bft) 97,87 %
24.07.2023 02:18 17,9 C 16,7 C 13,3 C 97 % 1005,8 hPa 0,0 l/m 0 min 0 min 0 W/m 0,0 km/h (0 Bft) 100,00 %
24.07.2023 02:20 17,9 C 16,7 C 13,3 C 97 % 1005,8 hPa 0,0 l/m 0 min 0 min 0 W/m 0,0 km/h (0 Bft) 100,00 %
24.07.2023 02:22 17,9 C 16,7 C 13,3 C 97 % 1005,8 hPa 0,0 l/m 0 min 0 min 0 W/m 0,0 km/h (0 Bft) 100,00 %
24.07.2023 02:24 17,9 C 16,7 C 13,3 C 97 % 1005,8 hPa 0,0 l/m 0 min 0 min 0 W/m 3,2 km/h (1 Bft) 97,87 %
24.07.2023 02:26 17,9 C 16,7 C 13,3 C 97 % 1005,8 hPa 0,0 l/m 0 min 0 min 0 W/m 0,0 km/h (0 Bft) 100,00 %
24.07.2023 02:28 17,9 C 16,7 C 13,3 C 97 % 1005,8 hPa 0,0 l/m 0 min 0 min 0 W/m 0,0 km/h (0 Bft) 100,00 %
24.07.2023 02:30 17,8 C 16,7 C 13,3 C 97 % 1005,7 hPa 0,0 l/m 0 min 0 min 0 W/m 0,0 km/h (0 Bft) 100,00 %
24.07.2023 02:32 17,8 C 16,7 C 13,3 C 97 % 1005,8 hPa 0,0 l/m 0 min 0 min 0 W/m 0,0 km/h (0 Bft) 97,87 %
24.07.2023 02:34 17,8 C 16,7 C 13,3 C 97 % 1005,8 hPa 0,0 l/m 0 min 0 min 0 W/m 0,0 km/h (0 Bft) 97,83 %
24.07.2023 02:36 17,8 C 16,7 C 13,3 C 97 % 1005,8 hPa 0,0 l/m 0 min 0 min 0 W/m 0,0 km/h (0 Bft) 100,00 %
24.07.2023 02:38 17,8 C 16,7 C 13,3 C 97 % 1005,8 hPa 0,0 l/m 0 min 0 min 0 W/m 3,2 km/h (1 Bft) 97,83 %
24.07.2023 02:40 17,8 C 16,7 C 13,3 C 97 % 1005,8 hPa 0,0 l/m 0 min 0 min 0 W/m 0,0 km/h (0 Bft) 97,92 %
24.07.2023 02:42 17,7 C 16,7 C 13,3 C 97 % 1005,7 hPa 0,0 l/m 0 min 0 min 0 W/m 0,0 km/h (0 Bft) 95,74 %
24.07.2023 02:44 17,7 C 16,7 C 13,3 C 97 % 1005,7 hPa 0,0 l/m 0 min 0 min 0 W/m 0,0 km/h (0 Bft) 97,87 %
24.07.2023 02:46 17,7 C 16,7 C 13,3 C 97 % 1005,7 hPa 0,0 l/m 0 min 0 min 0 W/m 0,0 km/h (0 Bft) 97,87 %
24.07.2023 02:48 17,7 C 16,7 C 13,3 C 97 % 1005,7 hPa 0,0 l/m 0 min 0 min 0 W/m 0,0 km/h (0 Bft) 97,87 %
24.07.2023 02:50 17,7 C 16,7 C 13,3 C 97 % 1005,6 hPa 0,0 l/m 0 min 0 min 0 W/m 0,0 km/h (0 Bft) 97,83 %
24.07.2023 02:52 17,7 C 16,7 C 12,8 C 97 % 1005,6 hPa 0,0 l/m 0 min 0 min 0 W/m 3,2 km/h (1 Bft) 95,74 %
24.07.2023 02:54 17,6 C 16,7 C 13,3 C 97 % 1005,6 hPa 0,0 l/m 0 min 0 min 0 W/m 3,2 km/h (1 Bft) 97,87 %
24.07.2023 02:56 17,6 C 16,7 C 12,8 C 97 % 1005,5 hPa 0,0 l/m 0 min 0 min 0 W/m 3,2 km/h (1 Bft) 97,87 %
24.07.2023 02:58 17,6 C 16,7 C 12,8 C 97 % 1005,5 hPa 0,0 l/m 0 min 0 min 0 W/m 0,0 km/h (0 Bft) 97,87 %
24.07.2023 03:00 17,6 C 16,7 C 12,8 C 97 % 1005,4 hPa 0,0 l/m 0 min 0 min 0 W/m 0,0 km/h (0 Bft) 97,87 %
24.07.2023 03:02 17,6 C 16,7 C 12,8 C 97 % 1005,4 hPa 0,0 l/m 0 min 0 min 0 W/m 0,0 km/h (0 Bft) 95,74 %
24.07.2023 03:04 17,6 C 16,7 C 13,3 C 97 % 1005,4 hPa 0,0 l/m 0 min 0 min 0 W/m 0,0 km/h (0 Bft) 95,74 %
24.07.2023 03:06 17,6 C 16,1 C 12,8 C 97 % 1005,3 hPa 0,0 l/m 0 min 0 min 0 W/m 0,0 km/h (0 Bft) 95,16 %
24.07.2023 03:08 17,6 C 16,1 C 12,8 C 97 % 1005,2 hPa 0,0 l/m 0 min 0 min 0 W/m 0,0 km/h (0 Bft) 97,14 %
24.07.2023 03:10 17,5 C 16,1 C 12,8 C 97 % 1005,2 hPa 0,0 l/m 0 min 0 min 0 W/m 3,2 km/h (1 Bft) 93,62 %
24.07.2023 03:12 17,4 C 16,1 C 12,8 C 97 % 1005,1 hPa 0,0 l/m 0 min 0 min 0 W/m 3,2 km/h (1 Bft) 95,74 %
24.07.2023 03:14 17,4 C 16,1 C 12,8 C 97 % 1005,1 hPa 0,0 l/m 0 min 0 min 0 W/m 3,2 km/h (1 Bft) 93,62 %
24.07.2023 03:16 17,4 C 16,1 C 12,8 C 97 % 1005,1 hPa 0,0 l/m 0 min 0 min 0 W/m 3,2 km/h (1 Bft) 95,65 %
24.07.2023 03:18 17,4 C 16,1 C 12,8 C 97 % 1005,1 hPa 0,0 l/m 0 min 0 min 0 W/m 3,2 km/h (1 Bft) 95,74 %
24.07.2023 03:20 17,3 C 16,1 C 12,8 C 97 % 1005,0 hPa 0,0 l/m 0 min 0 min 0 W/m 3,2 km/h (1 Bft) 95,74 %
24.07.2023 03:22 17,3 C 16,1 C 12,8 C 97 % 1005,0 hPa 0,0 l/m 0 min 0 min 0 W/m 6,4 km/h (2 Bft) 97,87 %
24.07.2023 03:24 17,3 C 16,1 C 12,8 C 97 % 1004,9 hPa 0,0 l/m 0 min 0 min 0 W/m 3,2 km/h (1 Bft) 97,87 %
24.07.2023 03:26 17,3 C 16,1 C 12,8 C 97 % 1004,9 hPa 0,0 l/m 0 min 0 min 0 W/m 6,4 km/h (2 Bft) 95,74 %
24.07.2023 03:28 17,3 C 16,1 C 12,8 C 97 % 1004,9 hPa 0,0 l/m 0 min 0 min 0 W/m 6,4 km/h (2 Bft) 97,83 %
24.07.2023 03:30 17,3 C 16,1 C 12,8 C 97 % 1004,9 hPa 0,0 l/m 0 min 0 min 0 W/m 3,2 km/h (1 Bft) 91,49 %
24.07.2023 03:32 17,3 C 16,1 C 12,8 C 97 % 1004,9 hPa 0,0 l/m 0 min 0 min 0 W/m 3,2 km/h (1 Bft) 97,87 %
24.07.2023 03:34 17,2 C 16,1 C 12,8 C 97 % 1004,9 hPa 0,0 l/m 0 min 0 min 0 W/m 3,2 km/h (1 Bft) 93,62 %
24.07.2023 03:36 17,2 C 16,1 C 12,8 C 97 % 1004,9 hPa 0,0 l/m 0 min 0 min 0 W/m 3,2 km/h (1 Bft) 95,74 %
24.07.2023 03:38 17,2 C 16,1 C 12,8 C 97 % 1004,8 hPa 0,0 l/m 0 min 0 min 0 W/m 3,2 km/h (1 Bft) 93,62 %
24.07.2023 03:40 17,2 C 16,1 C 12,8 C 97 % 1004,7 hPa 0,0 l/m 0 min 0 min 0 W/m 6,4 km/h (2 Bft) 95,74 %
24.07.2023 03:42 17,2 C 16,1 C 12,8 C 97 % 1004,7 hPa 0,0 l/m 0 min 0 min 0 W/m 3,2 km/h (1 Bft) 95,65 %
24.07.2023 03:44 17,1 C 16,1 C 12,8 C 97 % 1004,7 hPa 0,0 l/m 0 min 0 min 0 W/m 3,2 km/h (1 Bft) 95,74 %
24.07.2023 03:46 17,1 C 16,1 C 12,8 C 97 % 1004,6 hPa 0,0 l/m 0 min 0 min 0 W/m 3,2 km/h (1 Bft) 95,74 %
24.07.2023 03:48 17,1 C 16,1 C 12,8 C 97 % 1004,7 hPa 0,0 l/m 0 min 0 min 0 W/m 3,2 km/h (1 Bft) 93,62 %
24.07.2023 03:50 17,1 C 16,1 C 12,8 C 97 % 1004,8 hPa 0,0 l/m 0 min 0 min 0 W/m 3,2 km/h (1 Bft) 91,49 %
24.07.2023 03:52 17,1 C 16,1 C 12,8 C 97 % 1004,8 hPa 0,0 l/m 0 min 0 min 0 W/m 3,2 km/h (1 Bft) 95,74 %
24.07.2023 03:54 17,1 C 16,1 C 12,8 C 97 % 1004,7 hPa 0,0 l/m 0 min 0 min 0 W/m 3,2 km/h (1 Bft) 97,87 %
24.07.2023 03:56 17,1 C 16,1 C 12,8 C 97 % 1004,7 hPa 0,0 l/m 0 min 0 min 0 W/m 3,2 km/h (1 Bft) 97,87 %
24.07.2023 03:58 17,1 C 16,1 C 12,8 C 97 % 1004,7 hPa 0,0 l/m 0 min 0 min 0 W/m 0,0 km/h (0 Bft) 97,87 %
24.07.2023 04:00 17,1 C 16,1 C 12,8 C 97 % 1004,6 hPa 0,0 l/m 0 min 0 min 0 W/m 6,4 km/h (2 Bft) 95,74 %
24.07.2023 04:02 17,0 C 16,1 C 12,8 C 97 % 1004,6 hPa 0,0 l/m 0 min 0 min 0 W/m 3,2 km/h (1 Bft) 97,14 %
24.07.2023 04:04 17,0 C 16,1 C 12,8 C 97 % 1004,5 hPa 0,0 l/m 0 min 0 min 0 W/m 3,2 km/h (1 Bft) 96,00 %
24.07.2023 04:06 17,0 C 16,1 C 12,8 C 97 % 1004,5 hPa 0,2 l/m 0 min 0 min 0 W/m 6,4 km/h (2 Bft) 98,28 %
24.07.2023 04:08 17,0 C 16,1 C 12,8 C 97 % 1004,5 hPa 0,0 l/m 0 min 0 min 0 W/m 3,2 km/h (1 Bft) 95,74 %
24.07.2023 04:10 17,0 C 16,1 C 12,8 C 97 % 1004,5 hPa 0,0 l/m 0 min 0 min 0 W/m 3,2 km/h (1 Bft) 97,14 %
24.07.2023 04:12 17,0 C 16,1 C 12,8 C 97 % 1004,6 hPa 0,0 l/m 0 min 0 min 0 W/m 3,2 km/h (1 Bft) 100,00 %
24.07.2023 04:14 17,0 C 16,1 C 12,8 C 97 % 1004,6 hPa 0,0 l/m 0 min 0 min 0 W/m 0,0 km/h (0 Bft) 100,00 %
24.07.2023 04:16 17,0 C 16,1 C 12,8 C 97 % 1004,5 hPa 0,0 l/m 0 min 0 min 0 W/m 6,4 km/h (2 Bft) 100,00 %
24.07.2023 04:18 17,0 C 16,1 C 12,8 C 97 % 1004,5 hPa 0,0 l/m 0 min 0 min 0 W/m 0,0 km/h (0 Bft) 100,00 %
24.07.2023 04:20 16,9 C 16,1 C 12,8 C 97 % 1004,4 hPa 0,0 l/m 0 min 0 min 0 W/m 3,2 km/h (1 Bft) 100,00 %
24.07.2023 04:22 16,9 C 16,1 C 12,8 C 97 % 1004,4 hPa 0,0 l/m 0 min 0 min 0 W/m 3,2 km/h (1 Bft) 100,00 %
24.07.2023 04:24 16,9 C 16,1 C 12,8 C 97 % 1004,4 hPa 0,0 l/m 0 min 0 min 0 W/m 6,4 km/h (2 Bft) 100,00 %
24.07.2023 04:26 17,0 C 16,1 C 12,8 C 98 % 1004,4 hPa 0,0 l/m 0 min 0 min 0 W/m 3,2 km/h (1 Bft) 100,00 %
24.07.2023 04:28 17,0 C 16,1 C 12,8 C 98 % 1004,3 hPa 0,0 l/m 0 min 0 min 0 W/m 3,2 km/h (1 Bft) 100,00 %
24.07.2023 04:30 17,0 C 16,1 C 12,8 C 98 % 1004,3 hPa 0,0 l/m 0 min 0 min 0 W/m 0,0 km/h (0 Bft) 100,00 %
24.07.2023 04:32 17,0 C 16,1 C 12,8 C 98 % 1004,3 hPa 0,0 l/m 0 min 0 min 0 W/m 3,2 km/h (1 Bft) 100,00 %
24.07.2023 04:34 17,0 C 16,1 C 12,8 C 98 % 1004,3 hPa 0,0 l/m 0 min 0 min 0 W/m 3,2 km/h (1 Bft) 100,00 %
24.07.2023 04:36 17,0 C 16,1 C 12,8 C 98 % 1004,3 hPa 0,0 l/m 0 min 0 min 0 W/m 0,0 km/h (0 Bft) 95,65 %
24.07.2023 04:38 17,0 C 16,1 C 12,8 C 98 % 1004,3 hPa 0,0 l/m 0 min 2 min 0 W/m 3,2 km/h (1 Bft) 100,00 %
24.07.2023 04:40 17,0 C 16,1 C 12,8 C 98 % 1004,3 hPa 0,0 l/m 0 min 2 min 0 W/m 6,4 km/h (2 Bft) 100,00 %
24.07.2023 04:42 17,0 C 16,1 C 12,8 C 98 % 1004,2 hPa 0,0 l/m 0 min 2 min 0 W/m 3,2 km/h (1 Bft) 100,00 %
24.07.2023 04:44 17,1 C 16,1 C 12,8 C 98 % 1004,2 hPa 0,0 l/m 0 min 2 min 0 W/m 0,0 km/h (0 Bft) 100,00 %
24.07.2023 04:46 17,1 C 16,1 C 12,8 C 98 % 1004,2 hPa 0,0 l/m 0 min 2 min 0 W/m 3,2 km/h (1 Bft) 100,00 %
24.07.2023 04:48 17,1 C 16,1 C 12,8 C 98 % 1004,3 hPa 0,2 l/m 0 min 2 min 0 W/m 0,0 km/h (0 Bft) 100,00 %
24.07.2023 04:50 17,1 C 16,1 C 12,8 C 98 % 1004,3 hPa 0,0 l/m 0 min 2 min 0 W/m 0,0 km/h (0 Bft) 100,00 %
24.07.2023 04:52 17,1 C 16,1 C 12,8 C 98 % 1004,3 hPa 0,2 l/m 0 min 2 min 0 W/m 0,0 km/h (0 Bft) 100,00 %
24.07.2023 04:54 17,1 C 16,1 C 12,8 C 98 % 1004,3 hPa 0,2 l/m 0 min 2 min 0 W/m 3,2 km/h (1 Bft) 100,00 %
24.07.2023 04:56 17,1 C 16,1 C 12,8 C 98 % 1004,4 hPa 0,0 l/m 0 min 2 min 0 W/m 6,4 km/h (2 Bft) 95,74 %
24.07.2023 04:58 17,2 C 16,7 C 12,8 C 98 % 1004,4 hPa 0,0 l/m 0 min 2 min 0 W/m 3,2 km/h (1 Bft) 100,00 %
24.07.2023 05:00 17,2 C 16,7 C 13,3 C 98 % 1004,5 hPa 0,2 l/m 0 min 2 min 0 W/m 3,2 km/h (1 Bft) 97,87 %
24.07.2023 05:02 17,2 C 16,7 C 13,3 C 98 % 1004,4 hPa 0,0 l/m 0 min 2 min 0 W/m 6,4 km/h (2 Bft) 97,83 %
24.07.2023 05:04 17,2 C 16,7 C 13,3 C 98 % 1004,3 hPa 0,0 l/m 0 min 2 min 0 W/m 3,2 km/h (1 Bft) 97,96 %
24.07.2023 05:06 17,2 C 16,7 C 13,3 C 98 % 1004,0 hPa 0,2 l/m 0 min 2 min 0 W/m 0,0 km/h (0 Bft) 100,00 %
24.07.2023 05:08 17,3 C 16,7 C 13,3 C 98 % 1003,9 hPa 0,0 l/m 0 min 0 min 0 W/m 0,0 km/h (0 Bft) 100,00 %
24.07.2023 05:10 17,3 C 16,7 C 13,3 C 98 % 1004,0 hPa 0,0 l/m 0 min 0 min 0 W/m 0,0 km/h (0 Bft) 97,87 %
24.07.2023 05:12 17,3 C 16,7 C 13,3 C 98 % 1004,1 hPa 0,0 l/m 0 min 0 min 0 W/m 0,0 km/h (0 Bft) 100,00 %
24.07.2023 05:14 17,3 C 16,7 C 13,3 C 98 % 1004,2 hPa 0,0 l/m 0 min 0 min 0 W/m 0,0 km/h (0 Bft) 100,00 %
24.07.2023 05:16 17,3 C 16,7 C 13,3 C 98 % 1004,3 hPa 0,0 l/m 0 min 0 min 0 W/m 3,2 km/h (1 Bft) 97,87 %
24.07.2023 05:18 17,3 C 16,7 C 13,3 C 98 % 1004,2 hPa 0,0 l/m 0 min 0 min 0 W/m 3,2 km/h (1 Bft) 95,74 %
24.07.2023 05:20 17,3 C 16,7 C 13,3 C 98 % 1004,1 hPa 0,0 l/m 0 min 0 min 0 W/m 3,2 km/h (1 Bft) 97,87 %
24.07.2023 05:22 17,3 C 16,7 C 13,3 C 98 % 1004,2 hPa 0,0 l/m 0 min 2 min 0 W/m 3,2 km/h (1 Bft) 97,87 %
24.07.2023 05:24 17,3 C 16,7 C 13,3 C 98 % 1004,1 hPa 0,0 l/m 0 min 2 min 0 W/m 3,2 km/h (1 Bft) 97,87 %
24.07.2023 05:26 17,3 C 16,7 C 13,3 C 98 % 1004,2 hPa 0,0 l/m 0 min 2 min 0 W/m 0,0 km/h (0 Bft) 95,74 %
24.07.2023 05:28 17,3 C 16,7 C 13,3 C 98 % 1004,1 hPa 0,0 l/m 0 min 0 min 0 W/m 3,2 km/h (1 Bft) 95,65 %
24.07.2023 05:30 17,3 C 16,7 C 13,3 C 98 % 1004,1 hPa 0,0 l/m 0 min 0 min 0 W/m 3,2 km/h (1 Bft) 97,87 %
24.07.2023 05:32 17,3 C 16,7 C 13,3 C 98 % 1004,1 hPa 0,0 l/m 0 min 0 min 0 W/m 3,2 km/h (1 Bft) 95,74 %
24.07.2023 05:34 17,3 C 16,7 C 13,3 C 98 % 1004,1 hPa 0,0 l/m 0 min 0 min 0 W/m 0,0 km/h (0 Bft) 95,65 %
24.07.2023 05:36 17,3 C 16,7 C 13,3 C 98 % 1004,1 hPa 0,0 l/m 0 min 0 min 0 W/m 0,0 km/h (0 Bft) 95,74 %
24.07.2023 05:38 17,3 C 16,7 C 13,3 C 98 % 1004,1 hPa 0,0 l/m 0 min 0 min 0 W/m 3,2 km/h (1 Bft) 95,74 %
24.07.2023 05:40 17,3 C 16,7 C 13,3 C 98 % 1004,1 hPa 0,0 l/m 0 min 0 min 0 W/m 3,2 km/h (1 Bft) 95,74 %
24.07.2023 05:42 17,4 C 16,7 C 13,3 C 98 % 1004,0 hPa 0,0 l/m 0 min 0 min 0 W/m 3,2 km/h (1 Bft) 97,83 %
24.07.2023 05:44 17,4 C 16,7 C 13,3 C 98 % 1004,0 hPa 0,0 l/m 0 min 0 min 0 W/m 0,0 km/h (0 Bft) 95,74 %
24.07.2023 05:46 17,4 C 16,7 C 13,3 C 98 % 1004,0 hPa 0,0 l/m 0 min 0 min 0 W/m 3,2 km/h (1 Bft) 93,62 %
24.07.2023 05:48 17,4 C 16,7 C 13,3 C 98 % 1004,0 hPa 0,0 l/m 0 min 0 min 0 W/m 0,0 km/h (0 Bft) 95,74 %
24.07.2023 05:50 17,4 C 16,7 C 13,3 C 98 % 1004,0 hPa 0,0 l/m 0 min 0 min 0 W/m 3,2 km/h (1 Bft) 95,74 %
24.07.2023 05:52 17,4 C 16,7 C 13,3 C 98 % 1004,0 hPa 0,0 l/m 0 min 0 min 0 W/m 6,4 km/h (2 Bft) 97,87 %
24.07.2023 05:54 17,4 C 16,7 C 13,3 C 98 % 1003,9 hPa 0,0 l/m 0 min 0 min 0 W/m 3,2 km/h (1 Bft) 93,48 %
24.07.2023 05:56 17,4 C 16,7 C 13,3 C 98 % 1003,9 hPa 0,0 l/m 0 min 0 min 0 W/m 3,2 km/h (1 Bft) 93,62 %
24.07.2023 05:58 17,4 C 16,7 C 13,3 C 98 % 1003,9 hPa 0,0 l/m 0 min 2 min 0 W/m 3,2 km/h (1 Bft) 91,49 %
24.07.2023 06:00 17,4 C 16,7 C 13,3 C 98 % 1003,9 hPa 0,2 l/m 0 min 2 min 0 W/m 9,7 km/h (2 Bft) 93,62 %
24.07.2023 06:02 17,4 C 16,7 C 13,3 C 98 % 1003,9 hPa 0,0 l/m 0 min 2 min 0 W/m 3,2 km/h (1 Bft) 91,49 %
24.07.2023 06:04 17,4 C 16,7 C 13,3 C 98 % 1003,9 hPa 0,2 l/m 0 min 2 min 0 W/m 12,9 km/h (3 Bft) 95,74 %
24.07.2023 06:08 17,4 C 16,7 C 13,3 C 98 % 1003,9 hPa 0,4 l/m 0 min 4 min 0 W/m 9,7 km/h (2 Bft) 95,88 %
24.07.2023 06:10 17,4 C 16,7 C 13,3 C 98 % 1003,8 hPa 0,0 l/m 0 min 2 min 0 W/m 16,1 km/h (3 Bft) 97,87 %
24.07.2023 06:12 17,4 C 16,7 C 13,3 C 98 % 1003,8 hPa 0,0 l/m 0 min 2 min 0 W/m 12,9 km/h (3 Bft) 97,87 %
24.07.2023 06:14 17,5 C 16,7 C 13,3 C 98 % 1003,8 hPa 0,0 l/m 0 min 2 min 0 W/m 19,3 km/h (3 Bft) 97,87 %
24.07.2023 06:16 17,5 C 16,7 C 13,3 C 98 % 1003,8 hPa 0,2 l/m 0 min 2 min 0 W/m 12,9 km/h (3 Bft) 95,74 %
24.07.2023 06:18 17,5 C 16,7 C 13,3 C 98 % 1003,8 hPa 0,4 l/m 0 min 2 min 0 W/m 25,7 km/h (4 Bft) 97,87 %
24.07.2023 06:20 17,5 C 16,7 C 13,3 C 98 % 1003,7 hPa 0,0 l/m 0 min 2 min 0 W/m 19,3 km/h (3 Bft) 100,00 %
24.07.2023 06:22 17,5 C 16,7 C 13,3 C 98 % 1003,6 hPa 0,2 l/m 0 min 2 min 2 W/m 12,9 km/h (3 Bft) 100,00 %
24.07.2023 06:24 17,5 C 16,7 C 13,3 C 98 % 1003,6 hPa 0,0 l/m 0 min 2 min 5 W/m 16,1 km/h (3 Bft) 93,62 %
24.07.2023 06:26 17,5 C 16,7 C 13,3 C 98 % 1003,6 hPa 0,0 l/m 0 min 2 min 0 W/m 19,3 km/h (3 Bft) 100,00 %
24.07.2023 06:28 17,5 C 16,7 C 13,3 C 98 % 1003,6 hPa 0,2 l/m 0 min 2 min 0 W/m 19,3 km/h (3 Bft) 93,62 %
24.07.2023 06:30 17,5 C 16,7 C 13,3 C 98 % 1003,5 hPa 0,2 l/m 0 min 2 min 5 W/m 9,7 km/h (2 Bft) 97,87 %
24.07.2023 06:32 17,6 C 16,7 C 13,3 C 98 % 1003,5 hPa 0,0 l/m 0 min 2 min 5 W/m 19,3 km/h (3 Bft) 98,21 %
24.07.2023 06:34 17,5 C 16,7 C 13,3 C 98 % 1003,5 hPa 0,0 l/m 0 min 2 min 6 W/m 16,1 km/h (3 Bft) 97,83 %
24.07.2023 06:36 17,5 C 16,7 C 13,3 C 98 % 1003,6 hPa 0,0 l/m 0 min 2 min 7 W/m 9,7 km/h (2 Bft) 97,87 %
24.07.2023 06:38 17,5 C 16,7 C 13,3 C 98 % 1003,5 hPa 0,0 l/m 0 min 0 min 10 W/m 19,3 km/h (3 Bft) 95,74 %
24.07.2023 06:40 17,5 C 16,7 C 13,3 C 98 % 1003,6 hPa 0,0 l/m 0 min 0 min 12 W/m 16,1 km/h (3 Bft) 95,74 %
24.07.2023 06:42 17,5 C 16,7 C 13,3 C 98 % 1003,6 hPa 0,0 l/m 0 min 0 min 14 W/m 16,1 km/h (3 Bft) 100,00 %
24.07.2023 06:44 17,5 C 16,7 C 13,3 C 98 % 1003,6 hPa 0,0 l/m 0 min 2 min 14 W/m 9,7 km/h (2 Bft) 100,00 %
24.07.2023 06:46 17,5 C 16,7 C 13,3 C 98 % 1003,7 hPa 0,0 l/m 0 min 0 min 16 W/m 12,9 km/h (3 Bft) 100,00 %
24.07.2023 06:50 17,5 C 16,7 C 13,3 C 98 % 1003,7 hPa 0,0 l/m 0 min 4 min 18 W/m 19,3 km/h (3 Bft) 90,35 %
24.07.2023 06:55 17,5 C 16,7 C 13,3 C 98 % 1003,9 hPa 0,2 l/m 0 min 0 min 20 W/m 22,5 km/h (4 Bft) 75,44 %
24.07.2023 07:00 17,5 C 16,7 C 13,3 C 98 % 1003,9 hPa 0,0 l/m 0 min 0 min 24 W/m 19,3 km/h (3 Bft) 100,00 %
24.07.2023 07:05 17,6 C 16,7 C 13,3 C 98 % 1003,9 hPa 0,0 l/m 0 min 0 min 33 W/m 12,9 km/h (3 Bft) 100,00 %
24.07.2023 07:10 17,6 C 16,7 C 13,3 C 98 % 1004,0 hPa 0,0 l/m 0 min 0 min 38 W/m 22,5 km/h (4 Bft) 100,00 %
24.07.2023 07:15 17,6 C 16,7 C 13,3 C 99 % 1003,9 hPa 0,0 l/m 0 min 5 min 22 W/m 19,3 km/h (3 Bft) 100,00 %
24.07.2023 07:20 17,6 C 16,7 C 13,3 C 99 % 1004,1 hPa 0,0 l/m 0 min 0 min 19 W/m 12,9 km/h (3 Bft) 100,00 %
24.07.2023 07:25 17,6 C 16,7 C 13,3 C 98 % 1004,1 hPa 0,0 l/m 0 min 0 min 22 W/m 16,1 km/h (3 Bft) 100,00 %
24.07.2023 07:30 17,6 C 16,7 C 13,3 C 98 % 1004,2 hPa 0,0 l/m 0 min 0 min 49 W/m 16,1 km/h (3 Bft) 99,12 %
24.07.2023 07:35 17,6 C 17,2 C 13,3 C 98 % 1004,1 hPa 0,0 l/m 0 min 5 min 54 W/m 16,1 km/h (3 Bft) 100,00 %
24.07.2023 07:40 17,6 C 17,2 C 13,3 C 99 % 1004,1 hPa 0,0 l/m 0 min 0 min 53 W/m 9,7 km/h (2 Bft) 96,55 %
24.07.2023 07:42 17,6 C 17,2 C 13,3 C 99 % 1004,2 hPa 0,0 l/m 0 min 0 min 44 W/m 19,3 km/h (3 Bft) 97,83 %
24.07.2023 07:44 17,7 C 17,2 C 13,3 C 99 % 1004,1 hPa 0,0 l/m 0 min 0 min 42 W/m 22,5 km/h (4 Bft) 97,87 %
24.07.2023 07:46 17,7 C 17,2 C 13,3 C 99 % 1004,1 hPa 0,0 l/m 0 min 0 min 37 W/m 6,4 km/h (2 Bft) 97,87 %
24.07.2023 07:48 17,7 C 17,2 C 13,3 C 99 % 1004,1 hPa 0,0 l/m 0 min 0 min 45 W/m 12,9 km/h (3 Bft) 97,83 %
24.07.2023 07:50 17,7 C 17,2 C 13,3 C 98 % 1004,1 hPa 0,0 l/m 0 min 0 min 65 W/m 22,5 km/h (4 Bft) 97,87 %
24.07.2023 07:52 17,7 C 17,2 C 13,3 C 98 % 1004,1 hPa 0,0 l/m 0 min 0 min 75 W/m 19,3 km/h (3 Bft) 97,87 %
24.07.2023 07:54 17,7 C 17,2 C 13,3 C 98 % 1004,1 hPa 0,0 l/m 0 min 0 min 66 W/m 19,3 km/h (3 Bft) 97,87 %
24.07.2023 07:56 17,7 C 17,2 C 13,3 C 98 % 1004,0 hPa 0,0 l/m 0 min 0 min 61 W/m 25,7 km/h (4 Bft) 95,74 %
24.07.2023 07:58 17,7 C 17,2 C 13,3 C 98 % 1004,2 hPa 0,0 l/m 0 min 0 min 65 W/m 16,1 km/h (3 Bft) 97,87 %
24.07.2023 08:00 17,7 C 17,2 C 13,3 C 98 % 1004,0 hPa 0,0 l/m 0 min 0 min 90 W/m 22,5 km/h (4 Bft) 100,00 %
24.07.2023 08:02 17,7 C 17,8 C 13,3 C 98 % 1004,0 hPa 0,0 l/m 0 min 0 min 126 W/m 16,1 km/h (3 Bft) 100,00 %
24.07.2023 08:04 17,8 C 17,8 C 13,3 C 98 % 1004,0 hPa 0,0 l/m 2 min 0 min 163 W/m 25,7 km/h (4 Bft) 100,00 %
24.07.2023 08:06 17,8 C 17,8 C 13,3 C 98 % 1004,0 hPa 0,0 l/m 2 min 0 min 167 W/m 25,7 km/h (4 Bft) 98,31 %
24.07.2023 08:08 17,9 C 17,8 C 13,9 C 98 % 1004,0 hPa 0,0 l/m 2 min 0 min 211 W/m 16,1 km/h (3 Bft) 100,00 %
24.07.2023 08:10 17,9 C 18,3 C 13,9 C 98 % 1004,0 hPa 0,0 l/m 2 min 0 min 219 W/m 22,5 km/h (4 Bft) 100,00 %
24.07.2023 08:12 17,9 C 18,3 C 13,9 C 98 % 1004,1 hPa 0,0 l/m 2 min 0 min 255 W/m 9,7 km/h (2 Bft) 95,74 %
24.07.2023 08:14 18,1 C 18,3 C 13,9 C 98 % 1004,0 hPa 0,0 l/m 2 min 0 min 388 W/m 19,3 km/h (3 Bft) 97,83 %
24.07.2023 08:16 18,1 C 18,3 C 13,9 C 98 % 1004,0 hPa 0,0 l/m 2 min 0 min 298 W/m 29,0 km/h (5 Bft) 97,87 %
24.07.2023 08:18 18,1 C 18,3 C 13,9 C 98 % 1004,1 hPa 0,0 l/m 2 min 0 min 299 W/m 22,5 km/h (4 Bft) 97,87 %
24.07.2023 08:20 18,2 C 18,3 C 13,9 C 98 % 1004,0 hPa 0,0 l/m 0 min 0 min 151 W/m 16,1 km/h (3 Bft) 97,87 %
24.07.2023 08:22 18,2 C 18,3 C 13,9 C 98 % 1004,1 hPa 0,0 l/m 0 min 0 min 119 W/m 22,5 km/h (4 Bft) 97,87 %
24.07.2023 08:24 18,2 C 18,3 C 13,9 C 98 % 1004,1 hPa 0,0 l/m 0 min 0 min 119 W/m 16,1 km/h (3 Bft) 97,87 %
24.07.2023 08:26 18,2 C 18,3 C 13,9 C 98 % 1004,1 hPa 0,0 l/m 0 min 0 min 128 W/m 16,1 km/h (3 Bft) 97,87 %
24.07.2023 08:28 18,2 C 18,3 C 13,9 C 98 % 1004,1 hPa 0,0 l/m 0 min 0 min 142 W/m 12,9 km/h (3 Bft) 95,65 %
24.07.2023 08:30 18,3 C 18,3 C 13,9 C 98 % 1004,2 hPa 0,0 l/m 0 min 0 min 144 W/m 16,1 km/h (3 Bft) 97,87 %
24.07.2023 08:32 18,3 C 18,3 C 13,9 C 98 % 1004,2 hPa 0,0 l/m 0 min 0 min 167 W/m 16,1 km/h (3 Bft) 95,74 %
24.07.2023 08:34 18,3 C 18,3 C 13,9 C 98 % 1004,2 hPa 0,0 l/m 2 min 0 min 201 W/m 16,1 km/h (3 Bft) 93,62 %
24.07.2023 08:36 18,3 C 18,9 C 13,9 C 97 % 1004,3 hPa 0,0 l/m 2 min 0 min 244 W/m 12,9 km/h (3 Bft) 97,87 %
24.07.2023 08:38 18,4 C 18,9 C 13,9 C 97 % 1004,3 hPa 0,0 l/m 2 min 0 min 201 W/m 19,3 km/h (3 Bft) 97,87 %
24.07.2023 08:40 18,4 C 18,9 C 13,9 C 97 % 1004,2 hPa 0,0 l/m 0 min 0 min 170 W/m 12,9 km/h (3 Bft) 97,87 %
24.07.2023 08:42 18,5 C 18,9 C 13,9 C 97 % 1004,2 hPa 0,0 l/m 0 min 0 min 141 W/m 16,1 km/h (3 Bft) 97,83 %
24.07.2023 08:44 18,5 C 18,9 C 13,9 C 97 % 1004,2 hPa 0,0 l/m 0 min 0 min 154 W/m 16,1 km/h (3 Bft) 91,49 %
24.07.2023 08:46 18,6 C 18,3 C 13,9 C 97 % 1004,2 hPa 0,0 l/m 0 min 0 min 123 W/m 12,9 km/h (3 Bft) 93,62 %
24.07.2023 08:48 18,6 C 18,3 C 13,9 C 97 % 1004,3 hPa 0,0 l/m 0 min 0 min 102 W/m 16,1 km/h (3 Bft) 95,74 %
24.07.2023 08:50 18,6 C 18,3 C 13,9 C 96 % 1004,3 hPa 0,0 l/m 0 min 0 min 110 W/m 19,3 km/h (3 Bft) 95,74 %
24.07.2023 08:52 18,6 C 18,3 C 13,3 C 96 % 1004,3 hPa 0,0 l/m 0 min 0 min 96 W/m 29,0 km/h (5 Bft) 95,74 %
24.07.2023 08:54 18,6 C 18,3 C 13,9 C 96 % 1004,3 hPa 0,0 l/m 0 min 0 min 85 W/m 16,1 km/h (3 Bft) 95,74 %
24.07.2023 08:56 18,6 C 18,3 C 13,9 C 96 % 1004,3 hPa 0,0 l/m 0 min 0 min 77 W/m 22,5 km/h (4 Bft) 95,65 %
24.07.2023 08:58 18,6 C 18,3 C 13,9 C 96 % 1004,2 hPa 0,0 l/m 0 min 0 min 88 W/m 16,1 km/h (3 Bft) 95,74 %
24.07.2023 09:00 18,6 C 18,3 C 13,9 C 95 % 1004,2 hPa 0,0 l/m 0 min 0 min 99 W/m 6,4 km/h (2 Bft) 95,74 %
24.07.2023 09:02 18,6 C 18,3 C 13,9 C 95 % 1004,3 hPa 0,0 l/m 0 min 0 min 97 W/m 19,3 km/h (3 Bft) 95,74 %
24.07.2023 09:04 18,6 C 18,3 C 13,9 C 95 % 1004,4 hPa 0,0 l/m 0 min 0 min 93 W/m 16,1 km/h (3 Bft) 97,87 %
24.07.2023 09:06 18,6 C 18,3 C 13,9 C 95 % 1004,2 hPa 0,0 l/m 0 min 0 min 96 W/m 19,3 km/h (3 Bft) 98,28 %
24.07.2023 09:08 18,6 C 18,3 C 13,3 C 95 % 1004,2 hPa 0,0 l/m 0 min 0 min 91 W/m 12,9 km/h (3 Bft) 97,22 %
24.07.2023 09:10 18,6 C 18,3 C 13,3 C 95 % 1004,3 hPa 0,0 l/m 0 min 0 min 78 W/m 19,3 km/h (3 Bft) 97,83 %
24.07.2023 09:12 18,7 C 18,3 C 13,9 C 95 % 1004,3 hPa 0,0 l/m 0 min 0 min 78 W/m 16,1 km/h (3 Bft) 97,87 %
24.07.2023 09:14 18,7 C 18,3 C 13,9 C 95 % 1004,3 hPa 0,0 l/m 0 min 0 min 88 W/m 12,9 km/h (3 Bft) 97,87 %
24.07.2023 09:16 18,7 C 18,3 C 13,9 C 95 % 1004,3 hPa 0,0 l/m 0 min 0 min 116 W/m 19,3 km/h (3 Bft) 97,87 %
24.07.2023 09:18 18,7 C 18,3 C 13,9 C 95 % 1004,3 hPa 0,0 l/m 0 min 0 min 112 W/m 9,7 km/h (2 Bft) 95,74 %
24.07.2023 09:20 18,7 C 18,3 C 13,9 C 95 % 1004,3 hPa 0,0 l/m 0 min 0 min 111 W/m 9,7 km/h (2 Bft) 97,87 %
24.07.2023 09:22 18,7 C 18,3 C 13,9 C 94 % 1004,3 hPa 0,0 l/m 0 min 0 min 119 W/m 12,9 km/h (3 Bft) 97,87 %
24.07.2023 09:24 18,7 C 18,3 C 13,9 C 95 % 1004,2 hPa 0,0 l/m 0 min 0 min 124 W/m 19,3 km/h (3 Bft) 95,65 %
24.07.2023 09:26 18,7 C 18,3 C 13,9 C 94 % 1004,3 hPa 0,0 l/m 0 min 0 min 143 W/m 19,3 km/h (3 Bft) 95,74 %
24.07.2023 09:28 18,7 C 18,3 C 13,3 C 94 % 1004,2 hPa 0,0 l/m 0 min 0 min 128 W/m 16,1 km/h (3 Bft) 95,74 %
24.07.2023 09:30 18,7 C 18,3 C 13,3 C 94 % 1004,3 hPa 0,0 l/m 0 min 0 min 94 W/m 19,3 km/h (3 Bft) 95,74 %
24.07.2023 09:32 18,7 C 18,3 C 13,9 C 94 % 1004,3 hPa 0,0 l/m 0 min 0 min 72 W/m 16,1 km/h (3 Bft) 95,74 %
24.07.2023 09:34 18,7 C 18,3 C 13,3 C 94 % 1004,3 hPa 0,0 l/m 0 min 0 min 62 W/m 12,9 km/h (3 Bft) 95,74 %
24.07.2023 09:36 18,7 C 18,3 C 13,3 C 94 % 1004,3 hPa 0,0 l/m 0 min 0 min 64 W/m 12,9 km/h (3 Bft) 95,74 %
24.07.2023 09:38 18,8 C 18,3 C 13,9 C 94 % 1004,2 hPa 0,0 l/m 0 min 0 min 77 W/m 16,1 km/h (3 Bft) 95,65 %
24.07.2023 09:40 18,7 C 18,3 C 13,3 C 93 % 1004,2 hPa 0,0 l/m 0 min 2 min 78 W/m 25,7 km/h (4 Bft) 97,87 %
24.07.2023 09:42 18,7 C 17,8 C 13,3 C 93 % 1004,2 hPa 0,0 l/m 0 min 2 min 61 W/m 12,9 km/h (3 Bft) 97,87 %
24.07.2023 09:44 18,7 C 17,8 C 13,3 C 94 % 1004,4 hPa 0,0 l/m 0 min 2 min 59 W/m 22,5 km/h (4 Bft) 97,87 %
24.07.2023 09:46 18,6 C 17,8 C 13,3 C 94 % 1004,3 hPa 0,2 l/m 0 min 2 min 76 W/m 12,9 km/h (3 Bft) 95,74 %
24.07.2023 09:48 18,6 C 17,8 C 13,3 C 94 % 1004,3 hPa 0,0 l/m 0 min 2 min 87 W/m 12,9 km/h (3 Bft) 97,87 %
24.07.2023 09:50 18,6 C 17,8 C 13,3 C 94 % 1004,3 hPa 0,0 l/m 0 min 0 min 80 W/m 12,9 km/h (3 Bft) 97,87 %
24.07.2023 09:52 18,6 C 17,2 C 13,3 C 94 % 1004,3 hPa 0,0 l/m 0 min 0 min 63 W/m 19,3 km/h (3 Bft) 97,83 %
24.07.2023 09:54 18,6 C 17,8 C 13,9 C 95 % 1004,3 hPa 0,0 l/m 0 min 0 min 104 W/m 6,4 km/h (2 Bft) 97,87 %
24.07.2023 09:56 18,5 C 17,8 C 13,9 C 95 % 1004,3 hPa 0,0 l/m 0 min 0 min 84 W/m 6,4 km/h (2 Bft) 100,00 %
24.07.2023 09:58 18,5 C 17,8 C 13,9 C 95 % 1004,3 hPa 0,0 l/m 0 min 2 min 84 W/m 6,4 km/h (2 Bft) 95,74 %
24.07.2023 10:00 18,5 C 17,8 C 13,9 C 95 % 1004,2 hPa 0,2 l/m 0 min 2 min 121 W/m 6,4 km/h (2 Bft) 100,00 %
24.07.2023 10:02 18,5 C 17,8 C 13,9 C 95 % 1004,2 hPa 0,0 l/m 0 min 2 min 184 W/m 9,7 km/h (2 Bft) 95,74 %
24.07.2023 10:04 18,5 C 18,3 C 13,9 C 96 % 1004,2 hPa 0,0 l/m 2 min 0 min 297 W/m 6,4 km/h (2 Bft) 100,00 %
24.07.2023 10:06 18,6 C 18,9 C 14,4 C 96 % 1004,1 hPa 0,0 l/m 2 min 0 min 315 W/m 3,2 km/h (1 Bft) 100,00 %
24.07.2023 10:08 18,6 C 18,9 C 14,4 C 96 % 1004,1 hPa 0,0 l/m 2 min 0 min 318 W/m 6,4 km/h (2 Bft) 100,00 %
24.07.2023 10:10 18,7 C 18,9 C 14,4 C 96 % 1004,0 hPa 0,0 l/m 2 min 0 min 356 W/m 6,4 km/h (2 Bft) 100,00 %
24.07.2023 10:12 18,8 C 18,9 C 14,4 C 96 % 1004,1 hPa 0,0 l/m 0 min 0 min 254 W/m 6,4 km/h (2 Bft) 95,74 %
24.07.2023 10:14 18,8 C 18,9 C 14,4 C 96 % 1004,1 hPa 0,0 l/m 0 min 0 min 99 W/m 9,7 km/h (2 Bft) 100,00 %
24.07.2023 10:16 18,7 C 18,3 C 14,4 C 96 % 1004,2 hPa 0,0 l/m 0 min 0 min 147 W/m 22,5 km/h (4 Bft) 100,00 %
24.07.2023 10:18 18,7 C 18,9 C 14,4 C 96 % 1004,2 hPa 0,0 l/m 0 min 0 min 242 W/m 0,0 km/h (0 Bft) 97,87 %
24.07.2023 10:20 18,8 C 18,9 C 14,4 C 96 % 1004,2 hPa 0,0 l/m 0 min 0 min 230 W/m 16,1 km/h (3 Bft) 97,83 %
24.07.2023 10:22 18,9 C 19,4 C 14,4 C 97 % 1004,2 hPa 0,0 l/m 2 min 0 min 362 W/m 6,4 km/h (2 Bft) 95,74 %
24.07.2023 10:24 18,9 C 20,0 C 14,4 C 97 % 1004,1 hPa 0,0 l/m 2 min 0 min 638 W/m 0,0 km/h (0 Bft) 100,00 %
24.07.2023 10:26 18,9 C 19,4 C 14,4 C 97 % 1004,0 hPa 0,0 l/m 2 min 0 min 373 W/m 12,9 km/h (3 Bft) 100,00 %
24.07.2023 10:28 19,0 C 20,0 C 14,4 C 97 % 1003,9 hPa 0,0 l/m 2 min 0 min 556 W/m 9,7 km/h (2 Bft) 100,00 %
24.07.2023 10:30 19,1 C 20,0 C 14,4 C 97 % 1004,0 hPa 0,0 l/m 2 min 0 min 642 W/m 6,4 km/h (2 Bft) 100,00 %
24.07.2023 10:32 19,2 C 20,6 C 15,0 C 97 % 1003,9 hPa 0,0 l/m 2 min 0 min 671 W/m 6,4 km/h (2 Bft) 100,00 %
24.07.2023 10:34 19,4 C 20,6 C 15,0 C 97 % 1004,0 hPa 0,0 l/m 2 min 0 min 717 W/m 16,1 km/h (3 Bft) 100,00 %
24.07.2023 10:36 19,4 C 20,6 C 15,0 C 97 % 1004,0 hPa 0,0 l/m 2 min 0 min 749 W/m 16,1 km/h (3 Bft) 100,00 %
24.07.2023 10:38 19,5 C 20,6 C 15,0 C 97 % 1004,0 hPa 0,0 l/m 2 min 0 min 422 W/m 6,4 km/h (2 Bft) 100,00 %
24.07.2023 10:40 19,5 C 20,6 C 15,0 C 97 % 1004,0 hPa 0,0 l/m 2 min 0 min 345 W/m 12,9 km/h (3 Bft) 100,00 %
24.07.2023 10:42 19,6 C 21,1 C 15,0 C 97 % 1004,0 hPa 0,0 l/m 2 min 0 min 480 W/m 6,4 km/h (2 Bft) 100,00 %
24.07.2023 10:44 19,7 C 21,1 C 15,6 C 97 % 1004,0 hPa 0,0 l/m 2 min 0 min 670 W/m 12,9 km/h (3 Bft) 100,00 %
24.07.2023 10:46 19,7 C 21,1 C 15,0 C 96 % 1004,0 hPa 0,0 l/m 0 min 0 min 247 W/m 16,1 km/h (3 Bft) 97,83 %
24.07.2023 10:48 19,6 C 20,0 C 14,4 C 96 % 1004,0 hPa 0,0 l/m 0 min 0 min 215 W/m 16,1 km/h (3 Bft) 100,00 %
24.07.2023 10:50 19,4 C 19,4 C 13,9 C 94 % 1004,0 hPa 0,0 l/m 0 min 0 min 204 W/m 12,9 km/h (3 Bft) 100,00 %
24.07.2023 10:52 19,3 C 19,4 C 13,9 C 93 % 1004,0 hPa 0,0 l/m 0 min 0 min 213 W/m 16,1 km/h (3 Bft) 100,00 %
24.07.2023 10:54 19,2 C 18,9 C 13,9 C 93 % 1003,9 hPa 0,0 l/m 0 min 0 min 230 W/m 12,9 km/h (3 Bft) 100,00 %
24.07.2023 10:56 19,2 C 18,9 C 13,9 C 93 % 1003,9 hPa 0,0 l/m 0 min 0 min 214 W/m 12,9 km/h (3 Bft) 100,00 %
24.07.2023 10:58 19,2 C 19,4 C 14,4 C 93 % 1003,8 hPa 0,0 l/m 0 min 0 min 296 W/m 16,1 km/h (3 Bft) 100,00 %
24.07.2023 11:00 19,3 C 19,4 C 14,4 C 93 % 1003,8 hPa 0,0 l/m 2 min 0 min 394 W/m 6,4 km/h (2 Bft) 97,83 %
24.07.2023 11:02 19,4 C 20,6 C 15,0 C 93 % 1003,8 hPa 0,0 l/m 2 min 0 min 420 W/m 6,4 km/h (2 Bft) 100,00 %
24.07.2023 11:04 19,5 C 20,6 C 15,0 C 94 % 1003,9 hPa 0,0 l/m 2 min 0 min 356 W/m 6,4 km/h (2 Bft) 100,00 %
24.07.2023 11:06 19,6 C 20,6 C 14,4 C 93 % 1004,0 hPa 0,0 l/m 0 min 0 min 239 W/m 12,9 km/h (3 Bft) 100,00 %
24.07.2023 11:08 19,6 C 20,0 C 14,4 C 93 % 1004,0 hPa 0,0 l/m 0 min 0 min 188 W/m 9,7 km/h (2 Bft) 100,00 %
24.07.2023 11:10 19,6 C 19,4 C 14,4 C 93 % 1004,0 hPa 0,0 l/m 0 min 0 min 177 W/m 16,1 km/h (3 Bft) 97,87 %
24.07.2023 11:12 19,6 C 19,4 C 14,4 C 92 % 1004,1 hPa 0,0 l/m 0 min 0 min 196 W/m 6,4 km/h (2 Bft) 100,00 %
24.07.2023 11:14 19,6 C 19,4 C 13,9 C 92 % 1004,0 hPa 0,0 l/m 0 min 0 min 198 W/m 6,4 km/h (2 Bft) 97,83 %
24.07.2023 11:16 19,6 C 19,4 C 14,4 C 92 % 1004,0 hPa 0,0 l/m 0 min 0 min 174 W/m 3,2 km/h (1 Bft) 97,87 %
24.07.2023 11:18 19,5 C 19,4 C 13,9 C 92 % 1003,9 hPa 0,0 l/m 0 min 0 min 174 W/m 16,1 km/h (3 Bft) 97,87 %
24.07.2023 11:20 19,5 C 19,4 C 13,9 C 92 % 1003,9 hPa 0,0 l/m 0 min 0 min 209 W/m 6,4 km/h (2 Bft) 93,62 %
24.07.2023 11:22 19,6 C 19,4 C 14,4 C 92 % 1003,9 hPa 0,0 l/m 0 min 0 min 247 W/m 3,2 km/h (1 Bft) 93,62 %
24.07.2023 11:24 19,6 C 19,4 C 14,4 C 92 % 1003,9 hPa 0,0 l/m 0 min 0 min 239 W/m 3,2 km/h (1 Bft) 91,49 %
24.07.2023 11:26 19,6 C 19,4 C 14,4 C 92 % 1003,8 hPa 0,0 l/m 0 min 0 min 212 W/m 3,2 km/h (1 Bft) 91,49 %
24.07.2023 11:28 19,6 C 20,0 C 14,4 C 92 % 1003,8 hPa 0,0 l/m 0 min 2 min 225 W/m 12,9 km/h (3 Bft) 93,62 %
24.07.2023 11:30 19,6 C 19,4 C 14,4 C 92 % 1003,8 hPa 0,0 l/m 0 min 0 min 237 W/m 6,4 km/h (2 Bft) 93,48 %
24.07.2023 11:32 19,6 C 19,4 C 14,4 C 92 % 1003,8 hPa 0,0 l/m 0 min 2 min 236 W/m 6,4 km/h (2 Bft) 91,89 %
24.07.2023 11:34 19,7 C 19,4 C 14,4 C 92 % 1003,7 hPa 0,0 l/m 0 min 2 min 234 W/m 6,4 km/h (2 Bft) 93,62 %
24.07.2023 11:36 19,7 C 19,4 C 14,4 C 92 % 1003,7 hPa 0,0 l/m 0 min 2 min 231 W/m 12,9 km/h (3 Bft) 93,62 %
24.07.2023 11:38 19,6 C 19,4 C 14,4 C 92 % 1003,7 hPa 0,0 l/m 0 min 2 min 225 W/m 12,9 km/h (3 Bft) 91,49 %
24.07.2023 11:40 19,6 C 19,4 C 14,4 C 92 % 1003,6 hPa 0,0 l/m 0 min 0 min 211 W/m 6,4 km/h (2 Bft) 93,62 %
24.07.2023 11:42 19,6 C 19,4 C 14,4 C 92 % 1003,6 hPa 0,0 l/m 0 min 0 min 217 W/m 6,4 km/h (2 Bft) 93,62 %
24.07.2023 11:44 19,6 C 19,4 C 14,4 C 92 % 1003,5 hPa 0,0 l/m 0 min 0 min 255 W/m 6,4 km/h (2 Bft) 93,62 %
24.07.2023 11:46 19,7 C 21,1 C 15,0 C 93 % 1003,5 hPa 0,0 l/m 0 min 0 min 296 W/m 9,7 km/h (2 Bft) 93,48 %
24.07.2023 11:48 19,8 C 22,8 C 15,6 C 93 % 1003,5 hPa 0,0 l/m 2 min 0 min 437 W/m 9,7 km/h (2 Bft) 93,62 %
24.07.2023 11:50 19,9 C 23,9 C 16,1 C 93 % 1003,5 hPa 0,0 l/m 2 min 0 min 978 W/m 16,1 km/h (3 Bft) 93,62 %
24.07.2023 11:52 20,1 C 24,4 C 16,1 C 93 % 1003,5 hPa 0,0 l/m 2 min 0 min 784 W/m 6,4 km/h (2 Bft) 93,62 %
24.07.2023 11:54 20,2 C 23,9 C 16,1 C 93 % 1003,5 hPa 0,0 l/m 2 min 0 min 786 W/m 12,9 km/h (3 Bft) 95,74 %
24.07.2023 11:56 20,2 C 23,3 C 15,6 C 92 % 1003,4 hPa 0,0 l/m 2 min 0 min 588 W/m 6,4 km/h (2 Bft) 93,62 %
24.07.2023 11:58 20,3 C 22,8 C 15,6 C 92 % 1003,4 hPa 0,0 l/m 2 min 0 min 388 W/m 12,9 km/h (3 Bft) 93,75 %
24.07.2023 12:00 20,4 C 22,2 C 15,6 C 91 % 1003,4 hPa 0,0 l/m 0 min 0 min 332 W/m 6,4 km/h (2 Bft) 95,74 %
24.07.2023 12:02 20,4 C 21,1 C 15,0 C 90 % 1003,3 hPa 0,0 l/m 0 min 0 min 268 W/m 6,4 km/h (2 Bft) 93,62 %
24.07.2023 12:04 20,4 C 21,1 C 15,0 C 90 % 1003,3 hPa 0,0 l/m 0 min 0 min 191 W/m 6,4 km/h (2 Bft) 93,75 %
24.07.2023 12:07 20,5 C 20,6 C 15,0 C 90 % 1003,2 hPa 0,0 l/m 0 min 3 min 148 W/m 12,9 km/h (3 Bft) 93,75 %
24.07.2023 12:08 20,5 C 20,6 C 15,0 C 90 % 1003,2 hPa 0,0 l/m 0 min 1 min 146 W/m 12,9 km/h (3 Bft) 95,74 %
24.07.2023 12:12 20,5 C 20,0 C 15,0 C 89 % 1003,1 hPa 0,2 l/m 0 min 4 min 163 W/m 3,2 km/h (1 Bft) 92,31 %
24.07.2023 12:14 20,4 C 19,4 C 14,4 C 89 % 1003,2 hPa 0,0 l/m 0 min 2 min 141 W/m 9,7 km/h (2 Bft) 97,87 %
24.07.2023 12:16 20,4 C 19,4 C 15,0 C 89 % 1003,2 hPa 0,2 l/m 0 min 2 min 106 W/m 3,2 km/h (1 Bft) 100,00 %
24.07.2023 12:18 20,4 C 18,9 C 14,4 C 90 % 1003,1 hPa 0,0 l/m 0 min 2 min 78 W/m 3,2 km/h (1 Bft) 97,87 %
24.07.2023 12:20 20,4 C 18,9 C 14,4 C 90 % 1003,1 hPa 0,0 l/m 0 min 2 min 52 W/m 6,4 km/h (2 Bft) 100,00 %
24.07.2023 12:22 20,3 C 18,9 C 14,4 C 90 % 1003,1 hPa 0,2 l/m 0 min 2 min 36 W/m 3,2 km/h (1 Bft) 97,87 %
24.07.2023 12:24 20,2 C 18,3 C 14,4 C 90 % 1003,2 hPa 0,0 l/m 0 min 2 min 47 W/m 3,2 km/h (1 Bft) 100,00 %
24.07.2023 12:26 20,1 C 18,3 C 14,4 C 90 % 1003,2 hPa 0,4 l/m 0 min 2 min 98 W/m 3,2 km/h (1 Bft) 97,87 %
24.07.2023 12:28 20,1 C 18,3 C 14,4 C 91 % 1003,2 hPa 0,0 l/m 0 min 2 min 114 W/m 3,2 km/h (1 Bft) 97,87 %
24.07.2023 12:30 19,9 C 18,3 C 14,4 C 91 % 1003,3 hPa 0,2 l/m 0 min 2 min 95 W/m 12,9 km/h (3 Bft) 100,00 %
24.07.2023 12:32 19,8 C 18,3 C 13,9 C 91 % 1003,2 hPa 0,2 l/m 0 min 2 min 104 W/m 12,9 km/h (3 Bft) 100,00 %
24.07.2023 12:34 19,6 C 17,8 C 13,9 C 91 % 1003,2 hPa 0,0 l/m 0 min 2 min 120 W/m 6,4 km/h (2 Bft) 100,00 %
24.07.2023 12:36 19,5 C 17,8 C 13,9 C 91 % 1003,1 hPa 0,0 l/m 0 min 0 min 136 W/m 6,4 km/h (2 Bft) 100,00 %
24.07.2023 12:38 19,4 C 17,8 C 13,9 C 92 % 1003,1 hPa 0,0 l/m 0 min 0 min 158 W/m 6,4 km/h (2 Bft) 100,00 %
24.07.2023 12:40 19,3 C 18,3 C 13,9 C 92 % 1003,1 hPa 0,0 l/m 0 min 0 min 144 W/m 3,2 km/h (1 Bft) 97,87 %
24.07.2023 12:42 19,3 C 18,3 C 14,4 C 92 % 1003,0 hPa 0,0 l/m 0 min 0 min 192 W/m 6,4 km/h (2 Bft) 100,00 %
24.07.2023 12:44 19,3 C 18,9 C 14,4 C 93 % 1003,0 hPa 0,0 l/m 0 min 0 min 297 W/m 3,2 km/h (1 Bft) 100,00 %
24.07.2023 12:46 19,3 C 18,9 C 14,4 C 93 % 1003,0 hPa 0,0 l/m 0 min 0 min 249 W/m 3,2 km/h (1 Bft) 97,87 %
24.07.2023 12:48 19,4 C 18,9 C 14,4 C 93 % 1003,0 hPa 0,0 l/m 0 min 0 min 180 W/m 6,4 km/h (2 Bft) 97,87 %
24.07.2023 12:50 19,3 C 18,9 C 14,4 C 93 % 1003,1 hPa 0,0 l/m 0 min 0 min 148 W/m 3,2 km/h (1 Bft) 100,00 %
24.07.2023 12:52 19,3 C 18,9 C 14,4 C 94 % 1003,1 hPa 0,0 l/m 0 min 0 min 155 W/m 3,2 km/h (1 Bft) 97,87 %
24.07.2023 12:54 19,4 C 18,9 C 14,4 C 94 % 1003,1 hPa 0,0 l/m 0 min 0 min 171 W/m 6,4 km/h (2 Bft) 100,00 %
24.07.2023 12:56 19,4 C 18,9 C 14,4 C 94 % 1003,0 hPa 0,0 l/m 0 min 0 min 153 W/m 3,2 km/h (1 Bft) 100,00 %
24.07.2023 12:58 19,4 C 18,9 C 14,4 C 94 % 1002,9 hPa 0,0 l/m 0 min 0 min 111 W/m 3,2 km/h (1 Bft) 97,96 %
24.07.2023 13:00 19,3 C 18,9 C 14,4 C 94 % 1002,9 hPa 0,0 l/m 0 min 0 min 63 W/m 9,7 km/h (2 Bft) 100,00 %
24.07.2023 13:02 19,3 C 18,3 C 13,9 C 94 % 1002,9 hPa 0,0 l/m 0 min 0 min 39 W/m 12,9 km/h (3 Bft) 100,00 %
24.07.2023 13:04 19,2 C 18,3 C 13,9 C 94 % 1002,9 hPa 0,0 l/m 0 min 0 min 37 W/m 9,7 km/h (2 Bft) 97,87 %
24.07.2023 13:06 19,1 C 18,3 C 13,9 C 94 % 1003,0 hPa 0,2 l/m 0 min 2 min 36 W/m 9,7 km/h (2 Bft) 100,00 %
24.07.2023 13:08 19,1 C 18,3 C 13,9 C 94 % 1003,0 hPa 0,2 l/m 0 min 2 min 43 W/m 9,7 km/h (2 Bft) 97,87 %
24.07.2023 13:10 19,0 C 17,8 C 13,3 C 93 % 1002,9 hPa 0,2 l/m 0 min 2 min 41 W/m 12,9 km/h (3 Bft) 95,74 %
24.07.2023 13:12 18,9 C 17,8 C 13,3 C 93 % 1002,9 hPa 1,0 l/m 0 min 2 min 30 W/m 6,4 km/h (2 Bft) 100,00 %
24.07.2023 13:14 18,8 C 17,2 C 13,9 C 94 % 1002,9 hPa 0,8 l/m 0 min 2 min 28 W/m 3,2 km/h (1 Bft) 100,00 %
24.07.2023 13:16 18,8 C 17,2 C 13,9 C 94 % 1003,0 hPa 0,4 l/m 0 min 2 min 32 W/m 3,2 km/h (1 Bft) 97,87 %
24.07.2023 13:18 18,8 C 17,2 C 13,9 C 94 % 1003,2 hPa 0,0 l/m 0 min 2 min 35 W/m 6,4 km/h (2 Bft) 97,87 %
24.07.2023 13:20 18,8 C 17,2 C 13,9 C 94 % 1003,3 hPa 0,2 l/m 0 min 2 min 39 W/m 12,9 km/h (3 Bft) 97,83 %
24.07.2023 13:22 18,7 C 17,2 C 13,9 C 94 % 1003,4 hPa 0,2 l/m 0 min 2 min 40 W/m 6,4 km/h (2 Bft) 97,87 %
24.07.2023 13:24 18,7 C 17,2 C 13,9 C 95 % 1003,5 hPa 0,0 l/m 0 min 2 min 37 W/m 6,4 km/h (2 Bft) 97,87 %
24.07.2023 13:26 18,6 C 17,2 C 13,9 C 95 % 1003,5 hPa 0,4 l/m 0 min 2 min 32 W/m 6,4 km/h (2 Bft) 97,87 %
24.07.2023 13:28 18,6 C 16,7 C 13,3 C 95 % 1003,4 hPa 0,4 l/m 0 min 2 min 34 W/m 3,2 km/h (1 Bft) 95,74 %
24.07.2023 13:30 18,5 C 17,2 C 13,3 C 95 % 1003,4 hPa 0,0 l/m 0 min 2 min 42 W/m 6,4 km/h (2 Bft) 97,87 %
24.07.2023 13:32 18,4 C 17,2 C 13,3 C 95 % 1003,4 hPa 0,4 l/m 0 min 2 min 76 W/m 3,2 km/h (1 Bft) 97,87 %
24.07.2023 13:34 18,4 C 17,2 C 13,9 C 95 % 1003,3 hPa 0,2 l/m 0 min 2 min 157 W/m 6,4 km/h (2 Bft) 95,74 %
24.07.2023 13:36 18,4 C 17,2 C 13,9 C 96 % 1003,1 hPa 0,2 l/m 0 min 2 min 269 W/m 6,4 km/h (2 Bft) 95,65 %
24.07.2023 13:38 18,4 C 17,8 C 13,9 C 96 % 1003,1 hPa 0,0 l/m 0 min 0 min 333 W/m 6,4 km/h (2 Bft) 97,87 %
24.07.2023 13:40 18,5 C 17,8 C 13,9 C 96 % 1003,1 hPa 0,0 l/m 0 min 0 min 297 W/m 3,2 km/h (1 Bft) 95,74 %
24.07.2023 13:42 18,5 C 17,8 C 14,4 C 96 % 1002,9 hPa 0,0 l/m 0 min 0 min 290 W/m 6,4 km/h (2 Bft) 97,87 %
24.07.2023 13:44 18,5 C 18,9 C 13,9 C 96 % 1003,0 hPa 0,0 l/m 0 min 0 min 316 W/m 19,3 km/h (3 Bft) 97,87 %
24.07.2023 13:46 18,6 C 21,7 C 14,4 C 96 % 1002,9 hPa 0,0 l/m 0 min 2 min 348 W/m 12,9 km/h (3 Bft) 97,87 %
24.07.2023 13:48 18,8 C 23,3 C 15,0 C 97 % 1002,9 hPa 0,0 l/m 2 min 0 min 1031 W/m 3,2 km/h (1 Bft) 95,65 %
24.07.2023 13:50 19,1 C 22,8 C 15,0 C 97 % 1002,8 hPa 0,0 l/m 2 min 0 min 741 W/m 6,4 km/h (2 Bft) 95,74 %
24.07.2023 13:52 19,2 C 23,9 C 15,6 C 97 % 1002,9 hPa 0,0 l/m 2 min 0 min 425 W/m 9,7 km/h (2 Bft) 97,87 %
24.07.2023 13:54 19,4 C 25,0 C 15,6 C 98 % 1002,9 hPa 0,0 l/m 2 min 0 min 425 W/m 6,4 km/h (2 Bft) 97,87 %
24.07.2023 13:56 19,5 C 25,6 C 15,6 C 98 % 1002,9 hPa 0,0 l/m 2 min 0 min 536 W/m 12,9 km/h (3 Bft) 95,74 %
24.07.2023 13:58 19,5 C 23,9 C 15,6 C 98 % 1002,8 hPa 0,0 l/m 2 min 0 min 1088 W/m 16,1 km/h (3 Bft) 100,00 %
24.07.2023 14:00 19,4 C 22,8 C 15,6 C 97 % 1002,9 hPa 0,0 l/m 2 min 0 min 752 W/m 12,9 km/h (3 Bft) 97,87 %
24.07.2023 14:02 19,4 C 21,7 C 15,0 C 97 % 1002,9 hPa 0,0 l/m 0 min 0 min 350 W/m 12,9 km/h (3 Bft) 97,87 %
24.07.2023 14:04 19,4 C 20,6 C 15,0 C 97 % 1002,9 hPa 0,0 l/m 0 min 0 min 280 W/m 9,7 km/h (2 Bft) 97,62 %
24.07.2023 14:06 19,3 C 20,0 C 15,0 C 97 % 1003,0 hPa 0,0 l/m 0 min 0 min 290 W/m 16,1 km/h (3 Bft) 95,74 %
24.07.2023 14:08 19,2 C 19,4 C 14,4 C 97 % 1003,1 hPa 0,0 l/m 0 min 0 min 277 W/m 12,9 km/h (3 Bft) 97,87 %
24.07.2023 14:10 19,2 C 19,4 C 15,0 C 96 % 1003,2 hPa 0,0 l/m 0 min 0 min 290 W/m 16,1 km/h (3 Bft) 97,83 %
24.07.2023 14:12 19,1 C 19,4 C 15,0 C 96 % 1003,3 hPa 0,0 l/m 0 min 0 min 280 W/m 16,1 km/h (3 Bft) 97,87 %
24.07.2023 14:14 19,1 C 19,4 C 14,4 C 96 % 1003,4 hPa 0,0 l/m 0 min 0 min 277 W/m 16,1 km/h (3 Bft) 93,62 %
24.07.2023 14:16 19,0 C 18,9 C 14,4 C 96 % 1003,2 hPa 0,0 l/m 0 min 0 min 268 W/m 12,9 km/h (3 Bft) 97,87 %
24.07.2023 14:18 18,9 C 18,9 C 14,4 C 96 % 1003,3 hPa 0,0 l/m 0 min 0 min 253 W/m 12,9 km/h (3 Bft) 97,87 %
24.07.2023 14:20 18,8 C 18,9 C 14,4 C 96 % 1003,3 hPa 0,0 l/m 0 min 0 min 235 W/m 6,4 km/h (2 Bft) 97,87 %
24.07.2023 14:22 18,8 C 18,9 C 14,4 C 96 % 1003,4 hPa 0,0 l/m 0 min 0 min 232 W/m 12,9 km/h (3 Bft) 95,74 %
24.07.2023 14:24 18,8 C 18,9 C 14,4 C 96 % 1003,3 hPa 0,0 l/m 0 min 0 min 268 W/m 6,4 km/h (2 Bft) 95,65 %
24.07.2023 14:26 18,8 C 18,9 C 14,4 C 96 % 1003,4 hPa 0,0 l/m 0 min 0 min 290 W/m 12,9 km/h (3 Bft) 97,87 %
24.07.2023 14:28 18,8 C 18,9 C 14,4 C 96 % 1003,4 hPa 0,0 l/m 0 min 0 min 294 W/m 16,1 km/h (3 Bft) 97,87 %
24.07.2023 14:30 18,8 C 21,1 C 14,4 C 96 % 1003,3 hPa 0,0 l/m 0 min 0 min 301 W/m 9,7 km/h (2 Bft) 95,74 %
24.07.2023 14:32 18,9 C 23,9 C 15,0 C 96 % 1003,3 hPa 0,0 l/m 0 min 0 min 301 W/m 12,9 km/h (3 Bft) 39,39 %
24.07.2023 14:34 19,2 C 25,6 C 15,0 C 96 % 1003,2 hPa 0,0 l/m 0 min 0 min 301 W/m 12,9 km/h (3 Bft) 93,55 %
24.07.2023 14:36 19,4 C 26,1 C 15,0 C 97 % 1003,1 hPa 0,0 l/m 2 min 0 min 1022 W/m 12,9 km/h (3 Bft) 95,74 %
24.07.2023 14:38 19,6 C 25,0 C 15,0 C 97 % 1003,1 hPa 0,0 l/m 2 min 0 min 994 W/m 6,4 km/h (2 Bft) 95,65 %
24.07.2023 14:40 19,7 C 25,0 C 15,0 C 97 % 1003,0 hPa 0,0 l/m 2 min 0 min 816 W/m 6,4 km/h (2 Bft) 93,62 %
24.07.2023 14:42 19,8 C 25,0 C 15,0 C 96 % 1002,9 hPa 0,0 l/m 2 min 0 min 783 W/m 6,4 km/h (2 Bft) 95,74 %
24.07.2023 14:44 19,9 C 24,4 C 15,6 C 96 % 1002,9 hPa 0,0 l/m 2 min 0 min 765 W/m 9,7 km/h (2 Bft) 95,74 %
24.07.2023 14:46 20,0 C 23,3 C 15,0 C 96 % 1002,9 hPa 0,0 l/m 0 min 0 min 396 W/m 12,9 km/h (3 Bft) 91,49 %
24.07.2023 14:48 20,1 C 22,2 C 15,0 C 95 % 1002,9 hPa 0,0 l/m 0 min 0 min 303 W/m 6,4 km/h (2 Bft) 91,49 %
24.07.2023 14:50 20,1 C 21,1 C 15,0 C 94 % 1002,8 hPa 0,0 l/m 0 min 0 min 268 W/m 12,9 km/h (3 Bft) 97,87 %
24.07.2023 14:52 20,1 C 20,6 C 15,0 C 94 % 1002,8 hPa 0,0 l/m 0 min 0 min 239 W/m 6,4 km/h (2 Bft) 97,83 %
24.07.2023 14:54 20,1 C 20,6 C 14,4 C 93 % 1002,8 hPa 0,0 l/m 0 min 0 min 246 W/m 12,9 km/h (3 Bft) 95,74 %
24.07.2023 14:56 20,0 C 20,6 C 15,0 C 93 % 1002,6 hPa 0,0 l/m 0 min 0 min 328 W/m 9,7 km/h (2 Bft) 95,74 %
24.07.2023 14:58 20,1 C 21,1 C 15,0 C 92 % 1002,7 hPa 0,0 l/m 2 min 0 min 428 W/m 12,9 km/h (3 Bft) 97,87 %
24.07.2023 15:00 20,1 C 22,2 C 15,0 C 92 % 1002,7 hPa 0,0 l/m 2 min 0 min 584 W/m 16,1 km/h (3 Bft) 97,87 %
24.07.2023 15:02 20,2 C 22,8 C 15,0 C 92 % 1002,6 hPa 0,0 l/m 2 min 0 min 591 W/m 12,9 km/h (3 Bft) 97,87 %
24.07.2023 15:04 20,3 C 23,9 C 15,0 C 92 % 1002,6 hPa 0,0 l/m 2 min 0 min 659 W/m 6,4 km/h (2 Bft) 98,00 %
24.07.2023 15:06 20,4 C 23,3 C 15,0 C 92 % 1002,6 hPa 0,0 l/m 2 min 0 min 581 W/m 9,7 km/h (2 Bft) 97,83 %
24.07.2023 15:08 20,6 C 25,0 C 15,0 C 91 % 1002,6 hPa 0,0 l/m 0 min 0 min 313 W/m 3,2 km/h (1 Bft) 97,87 %
24.07.2023 15:10 20,7 C 24,4 C 15,0 C 91 % 1002,5 hPa 0,0 l/m 2 min 0 min 444 W/m 12,9 km/h (3 Bft) 97,87 %
24.07.2023 15:12 20,8 C 25,6 C 15,0 C 90 % 1002,7 hPa 0,0 l/m 2 min 0 min 813 W/m 12,9 km/h (3 Bft) 95,74 %
24.07.2023 15:14 20,9 C 26,7 C 15,0 C 90 % 1002,7 hPa 0,0 l/m 2 min 0 min 958 W/m 9,7 km/h (2 Bft) 93,62 %
24.07.2023 15:16 21,1 C 27,2 C 15,6 C 90 % 1002,7 hPa 0,0 l/m 2 min 0 min 976 W/m 9,7 km/h (2 Bft) 97,87 %
24.07.2023 15:18 21,3 C 26,1 C 15,0 C 90 % 1002,8 hPa 0,0 l/m 2 min 0 min 960 W/m 9,7 km/h (2 Bft) 97,87 %
24.07.2023 15:20 21,3 C 25,0 C 15,0 C 87 % 1002,7 hPa 0,0 l/m 2 min 0 min 960 W/m 16,1 km/h (3 Bft) 93,48 %
24.07.2023 15:22 21,3 C 22,8 C 15,0 C 86 % 1002,7 hPa 0,0 l/m 0 min 0 min 344 W/m 12,9 km/h (3 Bft) 95,74 %
24.07.2023 15:24 21,3 C 22,8 C 14,4 C 86 % 1002,8 hPa 0,0 l/m 0 min 0 min 264 W/m 12,9 km/h (3 Bft) 95,74 %
24.07.2023 15:26 21,3 C 22,8 C 14,4 C 85 % 1002,8 hPa 0,0 l/m 0 min 0 min 264 W/m 12,9 km/h (3 Bft) 95,74 %
24.07.2023 15:28 21,3 C 22,2 C 14,4 C 85 % 1002,7 hPa 0,0 l/m 0 min 0 min 291 W/m 9,7 km/h (2 Bft) 95,74 %
24.07.2023 15:30 21,3 C 22,2 C 15,0 C 85 % 1002,7 hPa 0,0 l/m 0 min 0 min 332 W/m 6,4 km/h (2 Bft) 95,74 %
24.07.2023 15:32 21,4 C 22,2 C 15,0 C 86 % 1002,7 hPa 0,0 l/m 0 min 0 min 323 W/m 16,1 km/h (3 Bft) 97,87 %
24.07.2023 15:34 21,4 C 22,8 C 15,0 C 85 % 1002,7 hPa 0,0 l/m 2 min 0 min 460 W/m 16,1 km/h (3 Bft) 97,83 %
24.07.2023 15:36 21,4 C 22,8 C 14,4 C 84 % 1002,7 hPa 0,0 l/m 2 min 0 min 438 W/m 9,7 km/h (2 Bft) 97,87 %
24.07.2023 15:38 21,4 C 22,8 C 14,4 C 84 % 1002,7 hPa 0,0 l/m 2 min 0 min 390 W/m 9,7 km/h (2 Bft) 97,87 %
24.07.2023 15:40 21,4 C 22,8 C 14,4 C 83 % 1002,6 hPa 0,0 l/m 2 min 0 min 485 W/m 12,9 km/h (3 Bft) 97,87 %
24.07.2023 15:42 21,4 C 22,8 C 14,4 C 83 % 1002,7 hPa 0,0 l/m 2 min 0 min 487 W/m 16,1 km/h (3 Bft) 97,87 %
24.07.2023 15:44 21,5 C 22,2 C 14,4 C 83 % 1002,7 hPa 0,0 l/m 0 min 0 min 325 W/m 9,7 km/h (2 Bft) 95,74 %
24.07.2023 15:46 21,4 C 21,7 C 14,4 C 83 % 1002,7 hPa 0,0 l/m 0 min 0 min 239 W/m 12,9 km/h (3 Bft) 97,87 %
24.07.2023 15:48 21,3 C 21,1 C 14,4 C 82 % 1002,7 hPa 0,0 l/m 0 min 0 min 243 W/m 12,9 km/h (3 Bft) 97,83 %
24.07.2023 15:50 21,3 C 21,1 C 14,4 C 83 % 1002,6 hPa 0,0 l/m 0 min 0 min 278 W/m 9,7 km/h (2 Bft) 97,87 %
24.07.2023 15:52 21,3 C 21,1 C 14,4 C 83 % 1002,6 hPa 0,0 l/m 0 min 0 min 309 W/m 6,4 km/h (2 Bft) 97,87 %
24.07.2023 15:54 21,3 C 21,1 C 14,4 C 83 % 1002,7 hPa 0,0 l/m 0 min 0 min 300 W/m 6,4 km/h (2 Bft) 100,00 %
24.07.2023 15:56 21,3 C 21,1 C 14,4 C 83 % 1002,6 hPa 0,0 l/m 0 min 0 min 279 W/m 12,9 km/h (3 Bft) 100,00 %
24.07.2023 15:58 21,2 C 21,1 C 14,4 C 83 % 1002,6 hPa 0,0 l/m 0 min 0 min 206 W/m 6,4 km/h (2 Bft) 97,87 %
24.07.2023 16:00 21,2 C 20,6 C 13,9 C 82 % 1002,5 hPa 0,0 l/m 0 min 0 min 144 W/m 19,3 km/h (3 Bft) 97,87 %
24.07.2023 16:02 21,1 C 20,6 C 13,9 C 81 % 1002,5 hPa 0,0 l/m 0 min 0 min 148 W/m 12,9 km/h (3 Bft) 100,00 %
24.07.2023 16:04 21,0 C 20,6 C 13,9 C 81 % 1002,5 hPa 0,0 l/m 0 min 0 min 142 W/m 12,9 km/h (3 Bft) 100,00 %
24.07.2023 16:06 20,9 C 20,0 C 13,9 C 81 % 1002,4 hPa 0,0 l/m 0 min 0 min 106 W/m 16,1 km/h (3 Bft) 100,00 %
24.07.2023 16:08 20,9 C 20,0 C 13,9 C 81 % 1002,5 hPa 0,0 l/m 0 min 0 min 102 W/m 12,9 km/h (3 Bft) 97,87 %
24.07.2023 16:10 20,9 C 20,0 C 13,9 C 82 % 1002,5 hPa 0,0 l/m 0 min 2 min 100 W/m 12,9 km/h (3 Bft) 100,00 %
24.07.2023 16:12 20,9 C 20,0 C 13,9 C 83 % 1002,5 hPa 0,0 l/m 0 min 2 min 116 W/m 6,4 km/h (2 Bft) 100,00 %
24.07.2023 16:14 20,9 C 20,0 C 14,4 C 85 % 1002,4 hPa 0,0 l/m 0 min 2 min 149 W/m 6,4 km/h (2 Bft) 100,00 %
24.07.2023 16:16 20,8 C 20,0 C 14,4 C 85 % 1002,5 hPa 0,0 l/m 0 min 2 min 178 W/m 16,1 km/h (3 Bft) 97,87 %
24.07.2023 16:18 20,8 C 20,0 C 14,4 C 86 % 1002,5 hPa 0,0 l/m 0 min 0 min 170 W/m 12,9 km/h (3 Bft) 100,00 %
24.07.2023 16:20 20,7 C 20,0 C 14,4 C 86 % 1002,6 hPa 0,0 l/m 0 min 0 min 172 W/m 6,4 km/h (2 Bft) 100,00 %
24.07.2023 16:22 20,7 C 20,0 C 15,0 C 86 % 1002,6 hPa 0,0 l/m 0 min 0 min 162 W/m 6,4 km/h (2 Bft) 100,00 %
24.07.2023 16:24 20,7 C 20,0 C 15,6 C 87 % 1002,6 hPa 0,0 l/m 0 min 0 min 156 W/m 12,9 km/h (3 Bft) 100,00 %
24.07.2023 16:26 20,7 C 20,6 C 15,6 C 87 % 1002,5 hPa 0,0 l/m 0 min 0 min 181 W/m 16,1 km/h (3 Bft) 100,00 %
24.07.2023 16:28 20,6 C 20,6 C 15,6 C 86 % 1002,4 hPa 0,0 l/m 0 min 2 min 306 W/m 12,9 km/h (3 Bft) 100,00 %
24.07.2023 16:30 20,6 C 20,6 C 16,1 C 86 % 1002,4 hPa 0,0 l/m 0 min 0 min 335 W/m 12,9 km/h (3 Bft) 100,00 %
24.07.2023 16:32 20,6 C 21,1 C 16,1 C 85 % 1002,4 hPa 0,0 l/m 0 min 0 min 296 W/m 9,7 km/h (2 Bft) 100,00 %
24.07.2023 16:34 20,7 C 21,1 C 16,7 C 86 % 1002,3 hPa 0,0 l/m 0 min 0 min 334 W/m 12,9 km/h (3 Bft) 97,83 %
24.07.2023 16:36 20,7 C 21,7 C 16,7 C 85 % 1002,3 hPa 0,0 l/m 2 min 0 min 407 W/m 12,9 km/h (3 Bft) 100,00 %
24.07.2023 16:38 20,8 C 22,2 C 16,7 C 85 % 1002,3 hPa 0,0 l/m 2 min 0 min 429 W/m 6,4 km/h (2 Bft) 39,39 %
24.07.2023 16:40 20,9 C 22,8 C 17,2 C 86 % 1002,3 hPa 0,0 l/m 2 min 0 min 429 W/m 6,4 km/h (2 Bft) 100,00 %
24.07.2023 16:42 21,1 C 22,8 C 17,2 C 85 % 1002,4 hPa 0,0 l/m 2 min 0 min 360 W/m 9,7 km/h (2 Bft) 97,87 %
24.07.2023 16:44 21,1 C 22,8 C 17,2 C 83 % 1002,4 hPa 0,0 l/m 2 min 0 min 363 W/m 9,7 km/h (2 Bft) 97,87 %
24.07.2023 16:46 21,3 C 23,9 C 17,8 C 83 % 1002,4 hPa 0,0 l/m 2 min 0 min 657 W/m 19,3 km/h (3 Bft) 97,87 %
24.07.2023 16:48 21,4 C 25,0 C 17,8 C 80 % 1002,4 hPa 0,0 l/m 2 min 0 min 657 W/m 19,3 km/h (3 Bft) 97,83 %
24.07.2023 16:50 21,6 C 24,4 C 17,8 C 79 % 1002,4 hPa 0,0 l/m 2 min 0 min 657 W/m 16,1 km/h (3 Bft) 97,87 %
24.07.2023 16:52 21,8 C 25,0 C 17,8 C 78 % 1002,4 hPa 0,0 l/m 2 min 0 min 681 W/m 9,7 km/h (2 Bft) 95,74 %
24.07.2023 16:54 21,9 C 25,6 C 18,3 C 79 % 1002,4 hPa 0,0 l/m 2 min 0 min 786 W/m 12,9 km/h (3 Bft) 97,87 %
24.07.2023 16:56 22,1 C 25,0 C 17,8 C 77 % 1002,4 hPa 0,0 l/m 2 min 0 min 784 W/m 12,9 km/h (3 Bft) 96,23 %
24.07.2023 16:58 22,1 C 23,9 C 17,8 C 75 % 1002,4 hPa 0,0 l/m 2 min 0 min 672 W/m 16,1 km/h (3 Bft) 97,87 %
24.07.2023 17:00 22,0 C 23,3 C 17,8 C 74 % 1002,5 hPa 0,0 l/m 0 min 0 min 199 W/m 16,1 km/h (3 Bft) 98,00 %
24.07.2023 17:02 21,9 C 23,9 C 17,8 C 75 % 1002,5 hPa 0,0 l/m 0 min 0 min 211 W/m 16,1 km/h (3 Bft) 97,30 %
24.07.2023 17:04 22,0 C 25,0 C 17,8 C 75 % 1002,5 hPa 0,0 l/m 2 min 0 min 708 W/m 12,9 km/h (3 Bft) 98,00 %
24.07.2023 17:06 22,1 C 25,0 C 17,8 C 75 % 1002,6 hPa 0,0 l/m 2 min 0 min 719 W/m 16,1 km/h (3 Bft) 97,87 %
24.07.2023 17:08 22,1 C 23,9 C 17,8 C 76 % 1002,8 hPa 0,0 l/m 2 min 0 min 509 W/m 12,9 km/h (3 Bft) 95,74 %
24.07.2023 17:10 22,1 C 23,9 C 17,8 C 76 % 1002,7 hPa 0,0 l/m 2 min 0 min 368 W/m 12,9 km/h (3 Bft) 97,87 %
24.07.2023 17:12 22,1 C 25,0 C 17,8 C 75 % 1002,8 hPa 0,0 l/m 2 min 0 min 702 W/m 25,7 km/h (4 Bft) 95,74 %
24.07.2023 17:14 22,1 C 23,9 C 17,8 C 75 % 1002,8 hPa 0,0 l/m 2 min 0 min 576 W/m 16,1 km/h (3 Bft) 93,62 %
24.07.2023 17:16 22,1 C 23,9 C 17,8 C 75 % 1002,8 hPa 0,0 l/m 2 min 0 min 406 W/m 19,3 km/h (3 Bft) 95,65 %
24.07.2023 17:18 22,1 C 22,8 C 17,8 C 75 % 1002,8 hPa 0,0 l/m 2 min 0 min 366 W/m 12,9 km/h (3 Bft) 95,74 %
24.07.2023 17:20 22,1 C 22,8 C 17,8 C 75 % 1002,8 hPa 0,0 l/m 0 min 0 min 217 W/m 12,9 km/h (3 Bft) 97,87 %
24.07.2023 17:22 22,0 C 22,8 C 17,8 C 75 % 1002,9 hPa 0,0 l/m 2 min 0 min 365 W/m 19,3 km/h (3 Bft) 97,87 %
24.07.2023 17:24 21,9 C 22,2 C 17,8 C 76 % 1002,9 hPa 0,0 l/m 2 min 0 min 320 W/m 12,9 km/h (3 Bft) 95,74 %
24.07.2023 17:26 21,9 C 21,7 C 17,8 C 76 % 1002,9 hPa 0,0 l/m 0 min 0 min 176 W/m 12,9 km/h (3 Bft) 97,87 %
24.07.2023 17:28 21,8 C 21,7 C 17,2 C 76 % 1002,8 hPa 0,0 l/m 0 min 0 min 246 W/m 16,1 km/h (3 Bft) 97,87 %
24.07.2023 17:30 21,7 C 22,2 C 17,8 C 76 % 1002,8 hPa 0,0 l/m 0 min 0 min 247 W/m 9,7 km/h (2 Bft) 95,65 %
24.07.2023 17:32 21,6 C 22,2 C 17,8 C 76 % 1002,8 hPa 0,0 l/m 0 min 0 min 243 W/m 19,3 km/h (3 Bft) 97,87 %
24.07.2023 17:34 21,6 C 21,7 C 17,2 C 75 % 1002,8 hPa 0,0 l/m 2 min 0 min 299 W/m 19,3 km/h (3 Bft) 91,49 %
24.07.2023 17:36 21,5 C 21,7 C 17,2 C 74 % 1002,9 hPa 0,0 l/m 0 min 0 min 240 W/m 19,3 km/h (3 Bft) 95,74 %
24.07.2023 17:38 21,5 C 22,2 C 17,2 C 75 % 1002,9 hPa 0,0 l/m 2 min 0 min 314 W/m 19,3 km/h (3 Bft) 95,74 %
24.07.2023 17:40 21,4 C 21,7 C 17,2 C 75 % 1002,9 hPa 0,0 l/m 0 min 0 min 268 W/m 22,5 km/h (4 Bft) 95,74 %
24.07.2023 17:42 21,3 C 21,1 C 17,2 C 75 % 1002,9 hPa 0,0 l/m 0 min 0 min 119 W/m 16,1 km/h (3 Bft) 97,87 %
24.07.2023 17:44 21,3 C 20,6 C 17,2 C 75 % 1002,9 hPa 0,0 l/m 0 min 0 min 111 W/m 9,7 km/h (2 Bft) 97,83 %
24.07.2023 17:46 21,2 C 20,6 C 16,7 C 76 % 1002,9 hPa 0,0 l/m 0 min 0 min 90 W/m 16,1 km/h (3 Bft) 97,87 %
24.07.2023 17:48 21,1 C 20,0 C 16,7 C 76 % 1003,0 hPa 0,0 l/m 0 min 0 min 73 W/m 19,3 km/h (3 Bft) 93,62 %
24.07.2023 17:50 21,0 C 20,0 C 16,7 C 76 % 1003,1 hPa 0,0 l/m 0 min 0 min 58 W/m 16,1 km/h (3 Bft) 97,87 %
24.07.2023 17:52 20,9 C 20,0 C 16,7 C 76 % 1003,1 hPa 0,0 l/m 0 min 0 min 52 W/m 19,3 km/h (3 Bft) 95,74 %
24.07.2023 17:54 20,8 C 20,0 C 16,1 C 77 % 1003,1 hPa 0,0 l/m 0 min 0 min 46 W/m 16,1 km/h (3 Bft) 95,74 %
24.07.2023 17:56 20,7 C 19,4 C 16,1 C 77 % 1003,2 hPa 0,0 l/m 0 min 0 min 38 W/m 12,9 km/h (3 Bft) 96,08 %
24.07.2023 17:58 20,6 C 19,4 C 16,1 C 78 % 1003,1 hPa 0,0 l/m 0 min 0 min 32 W/m 12,9 km/h (3 Bft) 95,45 %
24.07.2023 18:00 20,5 C 19,4 C 16,1 C 78 % 1003,2 hPa 0,0 l/m 0 min 0 min 25 W/m 16,1 km/h (3 Bft) 95,83 %
24.07.2023 18:02 20,4 C 19,4 C 15,6 C 78 % 1003,2 hPa 0,0 l/m 0 min 2 min 21 W/m 19,3 km/h (3 Bft) 95,74 %
24.07.2023 18:04 20,3 C 18,9 C 15,6 C 79 % 1003,3 hPa 0,0 l/m 0 min 0 min 18 W/m 19,3 km/h (3 Bft) 97,96 %
24.07.2023 18:07 20,2 C 18,9 C 15,6 C 80 % 1003,3 hPa 0,0 l/m 0 min 0 min 26 W/m 16,1 km/h (3 Bft) 97,96 %
24.07.2023 18:08 20,1 C 18,9 C 15,6 C 80 % 1003,3 hPa 0,0 l/m 0 min 0 min 23 W/m 16,1 km/h (3 Bft) 96,88 %
24.07.2023 18:10 20,0 C 18,9 C 15,6 C 78 % 1003,3 hPa 0,0 l/m 0 min 0 min 26 W/m 25,7 km/h (4 Bft) 97,14 %
24.07.2023 18:12 19,8 C 18,9 C 15,6 C 77 % 1003,3 hPa 0,0 l/m 0 min 2 min 23 W/m 22,5 km/h (4 Bft) 95,74 %
24.07.2023 18:14 19,7 C 18,3 C 15,0 C 78 % 1003,4 hPa 0,0 l/m 0 min 2 min 23 W/m 22,5 km/h (4 Bft) 97,87 %
24.07.2023 18:16 19,4 C 17,8 C 13,9 C 80 % 1003,6 hPa 0,0 l/m 0 min 2 min 25 W/m 12,9 km/h (3 Bft) 93,62 %
24.07.2023 18:18 19,1 C 17,8 C 12,8 C 82 % 1003,7 hPa 0,0 l/m 0 min 2 min 27 W/m 19,3 km/h (3 Bft) 97,87 %
24.07.2023 18:20 18,8 C 17,2 C 12,8 C 82 % 1003,8 hPa 0,2 l/m 0 min 2 min 33 W/m 19,3 km/h (3 Bft) 98,15 %
24.07.2023 18:22 18,6 C 16,7 C 12,2 C 83 % 1003,7 hPa 0,0 l/m 0 min 2 min 34 W/m 9,7 km/h (2 Bft) 97,83 %
24.07.2023 18:24 18,3 C 16,7 C 12,2 C 84 % 1003,7 hPa 0,0 l/m 0 min 2 min 32 W/m 12,9 km/h (3 Bft) 95,74 %
24.07.2023 18:26 18,1 C 16,7 C 11,7 C 84 % 1003,7 hPa 0,2 l/m 0 min 2 min 29 W/m 16,1 km/h (3 Bft) 97,87 %
24.07.2023 18:28 17,9 C 16,1 C 11,7 C 85 % 1003,8 hPa 0,0 l/m 0 min 2 min 28 W/m 9,7 km/h (2 Bft) 97,87 %
24.07.2023 18:30 17,8 C 16,1 C 11,7 C 86 % 1003,8 hPa 0,0 l/m 0 min 2 min 28 W/m 9,7 km/h (2 Bft) 54,35 %
24.07.2023 18:32 17,6 C 16,1 C 11,7 C 87 % 1003,9 hPa 0,2 l/m 0 min 2 min 32 W/m 6,4 km/h (2 Bft) 97,14 %
24.07.2023 18:34 17,6 C 16,1 C 11,7 C 87 % 1003,9 hPa 0,0 l/m 0 min 2 min 36 W/m 6,4 km/h (2 Bft) 97,83 %
24.07.2023 18:36 17,4 C 16,1 C 11,7 C 88 % 1004,0 hPa 0,0 l/m 0 min 0 min 38 W/m 19,3 km/h (3 Bft) 97,87 %
24.07.2023 18:38 17,2 C 16,1 C 11,7 C 88 % 1004,0 hPa 0,0 l/m 0 min 0 min 49 W/m 16,1 km/h (3 Bft) 97,87 %
24.07.2023 18:40 17,2 C 16,1 C 11,7 C 89 % 1003,9 hPa 0,0 l/m 0 min 2 min 71 W/m 16,1 km/h (3 Bft) 97,87 %
24.07.2023 18:42 17,0 C 16,1 C 11,7 C 89 % 1003,9 hPa 0,0 l/m 0 min 2 min 93 W/m 22,5 km/h (4 Bft) 97,87 %
24.07.2023 18:44 16,9 C 16,1 C 11,1 C 89 % 1003,9 hPa 0,2 l/m 0 min 2 min 101 W/m 12,9 km/h (3 Bft) 100,00 %
24.07.2023 18:46 16,8 C 16,1 C 11,1 C 90 % 1004,0 hPa 0,0 l/m 0 min 2 min 105 W/m 12,9 km/h (3 Bft) 100,00 %
24.07.2023 18:48 16,8 C 16,1 C 11,1 C 90 % 1003,9 hPa 0,0 l/m 0 min 2 min 105 W/m 12,9 km/h (3 Bft) 100,00 %
24.07.2023 18:50 16,7 C 16,1 C 11,1 C 90 % 1004,0 hPa 0,0 l/m 0 min 2 min 98 W/m 9,7 km/h (2 Bft) 100,00 %
24.07.2023 18:52 16,6 C 15,6 C 11,1 C 90 % 1004,0 hPa 0,0 l/m 0 min 2 min 83 W/m 12,9 km/h (3 Bft) 97,87 %
24.07.2023 18:54 16,6 C 15,6 C 11,1 C 90 % 1003,9 hPa 0,0 l/m 0 min 2 min 69 W/m 6,4 km/h (2 Bft) 100,00 %
24.07.2023 18:56 16,6 C 15,6 C 11,1 C 91 % 1004,0 hPa 0,0 l/m 0 min 2 min 59 W/m 12,9 km/h (3 Bft) 97,87 %
24.07.2023 18:58 16,6 C 15,6 C 11,1 C 91 % 1004,0 hPa 0,0 l/m 0 min 2 min 54 W/m 6,4 km/h (2 Bft) 100,00 %
24.07.2023 19:00 16,5 C 15,6 C 11,1 C 91 % 1004,1 hPa 0,0 l/m 0 min 2 min 51 W/m 9,7 km/h (2 Bft) 100,00 %
24.07.2023 19:02 16,4 C 15,6 C 11,1 C 91 % 1004,1 hPa 0,2 l/m 0 min 2 min 49 W/m 9,7 km/h (2 Bft) 100,00 %
24.07.2023 19:04 16,4 C 15,6 C 11,1 C 91 % 1004,1 hPa 0,0 l/m 0 min 2 min 49 W/m 12,9 km/h (3 Bft) 100,00 %
24.07.2023 19:06 16,4 C 15,6 C 11,1 C 91 % 1004,1 hPa 0,0 l/m 0 min 2 min 46 W/m 12,9 km/h (3 Bft) 100,00 %
24.07.2023 19:08 16,4 C 15,6 C 11,1 C 92 % 1004,2 hPa 0,0 l/m 0 min 2 min 40 W/m 6,4 km/h (2 Bft) 95,74 %
24.07.2023 19:10 16,4 C 15,6 C 11,1 C 92 % 1004,2 hPa 0,0 l/m 0 min 0 min 39 W/m 9,7 km/h (2 Bft) 100,00 %
24.07.2023 19:12 16,4 C 15,6 C 11,1 C 92 % 1004,1 hPa 0,0 l/m 0 min 0 min 45 W/m 3,2 km/h (1 Bft) 100,00 %
24.07.2023 19:14 16,3 C 15,6 C 11,1 C 92 % 1004,2 hPa 0,0 l/m 0 min 0 min 44 W/m 9,7 km/h (2 Bft) 100,00 %
24.07.2023 19:16 16,4 C 15,6 C 11,1 C 92 % 1004,3 hPa 0,0 l/m 0 min 0 min 42 W/m 6,4 km/h (2 Bft) 95,65 %
24.07.2023 19:18 16,3 C 15,6 C 11,7 C 92 % 1004,2 hPa 0,0 l/m 0 min 0 min 42 W/m 6,4 km/h (2 Bft) 97,87 %
24.07.2023 19:20 16,3 C 15,6 C 11,7 C 93 % 1004,3 hPa 0,0 l/m 0 min 0 min 43 W/m 9,7 km/h (2 Bft) 97,87 %
24.07.2023 19:22 16,3 C 15,6 C 11,7 C 93 % 1004,3 hPa 0,0 l/m 0 min 0 min 44 W/m 6,4 km/h (2 Bft) 97,87 %
24.07.2023 19:24 16,4 C 15,6 C 11,7 C 93 % 1004,3 hPa 0,0 l/m 0 min 0 min 50 W/m 6,4 km/h (2 Bft) 97,87 %
24.07.2023 19:26 16,4 C 15,6 C 11,7 C 93 % 1004,2 hPa 0,0 l/m 0 min 0 min 64 W/m 6,4 km/h (2 Bft) 95,74 %
24.07.2023 19:28 16,4 C 15,6 C 11,7 C 93 % 1004,2 hPa 0,0 l/m 0 min 0 min 75 W/m 3,2 km/h (1 Bft) 95,74 %
24.07.2023 19:30 16,4 C 16,1 C 11,7 C 93 % 1004,2 hPa 0,0 l/m 0 min 0 min 76 W/m 3,2 km/h (1 Bft) 95,65 %
24.07.2023 19:32 16,5 C 16,1 C 11,7 C 93 % 1004,4 hPa 0,0 l/m 0 min 0 min 67 W/m 6,4 km/h (2 Bft) 95,74 %
24.07.2023 19:34 16,5 C 16,1 C 11,7 C 93 % 1004,4 hPa 0,0 l/m 0 min 0 min 60 W/m 6,4 km/h (2 Bft) 95,74 %
24.07.2023 19:36 16,6 C 16,1 C 11,7 C 94 % 1004,4 hPa 0,0 l/m 0 min 0 min 71 W/m 3,2 km/h (1 Bft) 97,87 %
24.07.2023 19:38 16,5 C 16,1 C 11,7 C 93 % 1004,5 hPa 0,0 l/m 0 min 0 min 72 W/m 6,4 km/h (2 Bft) 95,74 %
24.07.2023 19:40 16,6 C 16,1 C 11,7 C 94 % 1004,5 hPa 0,0 l/m 0 min 0 min 76 W/m 12,9 km/h (3 Bft) 95,74 %
24.07.2023 19:42 16,6 C 16,1 C 11,7 C 94 % 1004,5 hPa 0,0 l/m 0 min 0 min 80 W/m 6,4 km/h (2 Bft) 95,74 %
24.07.2023 19:44 16,6 C 16,1 C 11,7 C 94 % 1004,5 hPa 0,0 l/m 0 min 0 min 86 W/m 6,4 km/h (2 Bft) 93,48 %
24.07.2023 19:46 16,6 C 16,1 C 11,7 C 94 % 1004,5 hPa 0,0 l/m 0 min 0 min 87 W/m 6,4 km/h (2 Bft) 95,74 %
24.07.2023 19:48 16,6 C 16,1 C 11,7 C 94 % 1004,5 hPa 0,0 l/m 0 min 0 min 105 W/m 6,4 km/h (2 Bft) 95,74 %
24.07.2023 19:50 16,6 C 16,1 C 11,7 C 94 % 1004,5 hPa 0,0 l/m 0 min 0 min 110 W/m 6,4 km/h (2 Bft) 97,87 %
24.07.2023 19:52 16,6 C 16,1 C 11,7 C 94 % 1004,5 hPa 0,0 l/m 0 min 0 min 99 W/m 9,7 km/h (2 Bft) 97,87 %
24.07.2023 19:54 16,6 C 16,1 C 11,7 C 94 % 1004,5 hPa 0,0 l/m 0 min 0 min 87 W/m 9,7 km/h (2 Bft) 97,87 %
24.07.2023 19:56 16,6 C 16,1 C 11,7 C 94 % 1004,5 hPa 0,0 l/m 0 min 0 min 76 W/m 9,7 km/h (2 Bft) 97,87 %
24.07.2023 19:58 16,6 C 16,1 C 11,7 C 94 % 1004,6 hPa 0,0 l/m 0 min 0 min 68 W/m 6,4 km/h (2 Bft) 97,87 %
24.07.2023 20:00 16,6 C 16,1 C 11,7 C 94 % 1004,6 hPa 0,0 l/m 0 min 0 min 62 W/m 6,4 km/h (2 Bft) 93,48 %
24.07.2023 20:02 16,7 C 16,1 C 11,7 C 94 % 1004,5 hPa 0,0 l/m 0 min 0 min 54 W/m 6,4 km/h (2 Bft) 95,74 %
24.07.2023 20:04 16,7 C 16,1 C 11,7 C 94 % 1004,5 hPa 0,0 l/m 0 min 0 min 48 W/m 6,4 km/h (2 Bft) 97,96 %
24.07.2023 20:06 16,7 C 16,1 C 11,7 C 94 % 1004,6 hPa 0,0 l/m 0 min 0 min 46 W/m 9,7 km/h (2 Bft) 97,87 %
24.07.2023 20:08 16,7 C 16,1 C 11,7 C 93 % 1004,6 hPa 0,0 l/m 0 min 0 min 50 W/m 3,2 km/h (1 Bft) 97,87 %
24.07.2023 20:10 16,7 C 16,1 C 11,7 C 93 % 1004,6 hPa 0,0 l/m 0 min 0 min 48 W/m 12,9 km/h (3 Bft) 95,74 %
24.07.2023 20:12 16,7 C 16,1 C 11,7 C 93 % 1004,6 hPa 0,0 l/m 0 min 0 min 42 W/m 6,4 km/h (2 Bft) 97,87 %
24.07.2023 20:14 16,7 C 16,1 C 11,7 C 94 % 1004,5 hPa 0,0 l/m 0 min 0 min 36 W/m 6,4 km/h (2 Bft) 97,83 %
24.07.2023 20:16 16,7 C 16,1 C 11,7 C 94 % 1004,6 hPa 0,0 l/m 0 min 0 min 28 W/m 3,2 km/h (1 Bft) 97,87 %
24.07.2023 20:18 16,8 C 16,1 C 11,7 C 94 % 1004,6 hPa 0,0 l/m 0 min 0 min 24 W/m 6,4 km/h (2 Bft) 95,74 %
24.07.2023 20:20 16,8 C 16,1 C 11,7 C 94 % 1004,5 hPa 0,0 l/m 0 min 0 min 24 W/m 3,2 km/h (1 Bft) 95,74 %
24.07.2023 20:22 16,8 C 16,1 C 11,7 C 94 % 1004,5 hPa 0,0 l/m 0 min 0 min 27 W/m 3,2 km/h (1 Bft) 100,00 %
24.07.2023 20:24 16,8 C 16,1 C 11,7 C 94 % 1004,5 hPa 0,0 l/m 0 min 0 min 35 W/m 3,2 km/h (1 Bft) 97,87 %
24.07.2023 20:26 16,8 C 16,1 C 11,7 C 93 % 1004,6 hPa 0,0 l/m 0 min 0 min 38 W/m 6,4 km/h (2 Bft) 100,00 %
24.07.2023 20:28 16,8 C 16,1 C 11,7 C 93 % 1004,6 hPa 0,0 l/m 0 min 0 min 39 W/m 3,2 km/h (1 Bft) 100,00 %
24.07.2023 20:30 16,8 C 16,1 C 11,7 C 93 % 1004,6 hPa 0,0 l/m 0 min 0 min 39 W/m 12,9 km/h (3 Bft) 100,00 %
24.07.2023 20:32 16,7 C 16,1 C 11,7 C 93 % 1004,6 hPa 0,0 l/m 0 min 0 min 39 W/m 6,4 km/h (2 Bft) 97,87 %
24.07.2023 20:34 16,7 C 16,1 C 11,7 C 93 % 1004,6 hPa 0,0 l/m 0 min 0 min 36 W/m 12,9 km/h (3 Bft) 95,74 %
24.07.2023 20:36 16,8 C 16,7 C 12,2 C 93 % 1004,6 hPa 0,0 l/m 0 min 0 min 34 W/m 12,9 km/h (3 Bft) 100,00 %
24.07.2023 20:38 16,8 C 16,7 C 12,2 C 93 % 1004,6 hPa 0,0 l/m 0 min 0 min 33 W/m 9,7 km/h (2 Bft) 97,87 %
24.07.2023 20:40 16,9 C 16,7 C 12,2 C 94 % 1004,6 hPa 0,0 l/m 0 min 0 min 34 W/m 9,7 km/h (2 Bft) 97,87 %
24.07.2023 20:42 16,9 C 16,7 C 12,2 C 93 % 1004,6 hPa 0,0 l/m 0 min 0 min 35 W/m 9,7 km/h (2 Bft) 95,65 %
24.07.2023 20:44 17,0 C 16,7 C 12,2 C 93 % 1004,6 hPa 0,0 l/m 0 min 0 min 35 W/m 6,4 km/h (2 Bft) 97,87 %
24.07.2023 20:46 17,1 C 16,7 C 12,2 C 93 % 1004,7 hPa 0,0 l/m 0 min 0 min 34 W/m 6,4 km/h (2 Bft) 97,87 %
24.07.2023 20:48 17,1 C 16,7 C 12,2 C 93 % 1004,6 hPa 0,0 l/m 0 min 0 min 30 W/m 6,4 km/h (2 Bft) 95,74 %
24.07.2023 20:50 17,1 C 16,7 C 12,2 C 93 % 1004,6 hPa 0,0 l/m 0 min 0 min 26 W/m 6,4 km/h (2 Bft) 97,87 %
24.07.2023 20:52 17,1 C 16,7 C 12,2 C 93 % 1004,6 hPa 0,0 l/m 0 min 0 min 23 W/m 6,4 km/h (2 Bft) 97,87 %
24.07.2023 20:54 17,1 C 16,7 C 12,2 C 93 % 1004,7 hPa 0,0 l/m 0 min 0 min 20 W/m 12,9 km/h (3 Bft) 97,87 %
24.07.2023 20:56 17,1 C 16,7 C 12,2 C 93 % 1004,7 hPa 0,0 l/m 0 min 0 min 18 W/m 6,4 km/h (2 Bft) 97,83 %
24.07.2023 20:58 17,0 C 16,7 C 12,2 C 93 % 1004,8 hPa 0,0 l/m 0 min 0 min 17 W/m 9,7 km/h (2 Bft) 97,87 %
24.07.2023 21:00 17,1 C 16,7 C 12,2 C 93 % 1004,8 hPa 0,0 l/m 0 min 0 min 16 W/m 6,4 km/h (2 Bft) 95,74 %
24.07.2023 21:02 17,1 C 16,7 C 11,7 C 93 % 1004,9 hPa 0,0 l/m 0 min 0 min 14 W/m 6,4 km/h (2 Bft) 93,62 %
24.07.2023 21:04 17,1 C 16,7 C 12,2 C 93 % 1004,9 hPa 0,0 l/m 0 min 0 min 14 W/m 6,4 km/h (2 Bft) 94,74 %
24.07.2023 21:06 17,1 C 16,7 C 12,2 C 93 % 1004,9 hPa 0,0 l/m 0 min 0 min 12 W/m 12,9 km/h (3 Bft) 96,61 %
24.07.2023 21:08 17,1 C 16,7 C 11,7 C 93 % 1005,0 hPa 0,0 l/m 0 min 0 min 11 W/m 3,2 km/h (1 Bft) 94,29 %
24.07.2023 21:10 17,1 C 16,7 C 11,7 C 93 % 1004,9 hPa 0,0 l/m 0 min 0 min 11 W/m 6,4 km/h (2 Bft) 95,74 %
24.07.2023 21:12 17,1 C 16,1 C 12,2 C 93 % 1004,9 hPa 0,0 l/m 0 min 0 min 11 W/m 6,4 km/h (2 Bft) 95,74 %
24.07.2023 21:14 17,1 C 16,1 C 12,2 C 93 % 1005,0 hPa 0,0 l/m 0 min 0 min 10 W/m 6,4 km/h (2 Bft) 91,30 %
24.07.2023 21:16 17,0 C 16,1 C 12,2 C 93 % 1005,1 hPa 0,0 l/m 0 min 0 min 9 W/m 12,9 km/h (3 Bft) 95,74 %
24.07.2023 21:18 17,0 C 16,1 C 11,7 C 93 % 1005,1 hPa 0,0 l/m 0 min 0 min 9 W/m 12,9 km/h (3 Bft) 97,87 %
24.07.2023 21:20 17,0 C 16,1 C 11,7 C 93 % 1005,1 hPa 0,0 l/m 0 min 0 min 9 W/m 6,4 km/h (2 Bft) 95,74 %
24.07.2023 21:22 17,0 C 16,1 C 11,7 C 93 % 1005,2 hPa 0,0 l/m 0 min 0 min 8 W/m 12,9 km/h (3 Bft) 95,74 %
24.07.2023 21:24 17,0 C 16,1 C 11,7 C 93 % 1005,2 hPa 0,0 l/m 0 min 0 min 7 W/m 6,4 km/h (2 Bft) 97,87 %
24.07.2023 21:26 17,0 C 16,1 C 12,2 C 93 % 1005,2 hPa 0,0 l/m 0 min 0 min 7 W/m 6,4 km/h (2 Bft) 95,65 %
24.07.2023 21:28 16,9 C 16,1 C 11,7 C 93 % 1005,2 hPa 0,0 l/m 0 min 0 min 7 W/m 3,2 km/h (1 Bft) 97,87 %
24.07.2023 21:30 16,9 C 16,1 C 11,7 C 93 % 1005,2 hPa 0,0 l/m 0 min 0 min 7 W/m 6,4 km/h (2 Bft) 95,74 %
24.07.2023 21:32 16,9 C 16,1 C 11,7 C 93 % 1005,3 hPa 0,0 l/m 0 min 0 min 5 W/m 12,9 km/h (3 Bft) 100,00 %
24.07.2023 21:34 16,9 C 16,1 C 11,7 C 93 % 1005,3 hPa 0,0 l/m 0 min 0 min 5 W/m 6,4 km/h (2 Bft) 100,00 %
24.07.2023 21:36 16,9 C 16,1 C 11,7 C 94 % 1005,3 hPa 0,0 l/m 0 min 0 min 1 W/m 3,2 km/h (1 Bft) 100,00 %
24.07.2023 21:38 16,9 C 16,1 C 11,7 C 94 % 1005,4 hPa 0,0 l/m 0 min 0 min 0 W/m 3,2 km/h (1 Bft) 100,00 %
24.07.2023 21:40 16,9 C 16,1 C 11,7 C 94 % 1005,5 hPa 0,0 l/m 0 min 0 min 0 W/m 9,7 km/h (2 Bft) 100,00 %
24.07.2023 21:42 16,8 C 16,1 C 11,7 C 94 % 1005,5 hPa 0,0 l/m 0 min 0 min 0 W/m 3,2 km/h (1 Bft) 100,00 %
24.07.2023 21:44 16,8 C 16,1 C 11,7 C 94 % 1005,4 hPa 0,0 l/m 0 min 0 min 0 W/m 6,4 km/h (2 Bft) 100,00 %
24.07.2023 21:46 16,8 C 16,1 C 11,7 C 94 % 1005,5 hPa 0,0 l/m 0 min 0 min 0 W/m 9,7 km/h (2 Bft) 100,00 %
24.07.2023 21:48 16,8 C 16,1 C 11,7 C 94 % 1005,5 hPa 0,0 l/m 0 min 0 min 0 W/m 6,4 km/h (2 Bft) 97,87 %
24.07.2023 21:50 16,8 C 16,1 C 11,7 C 94 % 1005,6 hPa 0,0 l/m 0 min 0 min 0 W/m 9,7 km/h (2 Bft) 100,00 %
24.07.2023 21:52 16,8 C 16,1 C 11,7 C 94 % 1005,7 hPa 0,0 l/m 0 min 0 min 0 W/m 3,2 km/h (1 Bft) 100,00 %
24.07.2023 21:54 16,8 C 16,1 C 11,7 C 94 % 1005,6 hPa 0,0 l/m 0 min 0 min 0 W/m 6,4 km/h (2 Bft) 100,00 %
24.07.2023 21:56 16,8 C 16,1 C 11,7 C 94 % 1005,7 hPa 0,0 l/m 0 min 0 min 0 W/m 3,2 km/h (1 Bft) 97,83 %
24.07.2023 21:58 16,8 C 16,1 C 11,7 C 94 % 1005,7 hPa 0,0 l/m 0 min 0 min 0 W/m 6,4 km/h (2 Bft) 100,00 %
24.07.2023 22:00 16,8 C 16,1 C 12,2 C 94 % 1005,7 hPa 0,0 l/m 0 min 0 min 0 W/m 3,2 km/h (1 Bft) 100,00 %
24.07.2023 22:02 16,8 C 16,1 C 11,7 C 94 % 1005,8 hPa 0,0 l/m 0 min 0 min 0 W/m 6,4 km/h (2 Bft) 100,00 %
24.07.2023 22:04 16,8 C 16,1 C 12,2 C 94 % 1005,8 hPa 0,0 l/m 0 min 0 min 0 W/m 6,4 km/h (2 Bft) 97,96 %
24.07.2023 22:06 16,8 C 16,1 C 11,7 C 94 % 1005,8 hPa 0,0 l/m 0 min 0 min 0 W/m 6,4 km/h (2 Bft) 100,00 %
24.07.2023 22:08 16,8 C 16,1 C 11,7 C 94 % 1005,8 hPa 0,0 l/m 0 min 0 min 0 W/m 6,4 km/h (2 Bft) 100,00 %
24.07.2023 22:10 16,8 C 16,1 C 11,7 C 94 % 1005,9 hPa 0,0 l/m 0 min 0 min 0 W/m 3,2 km/h (1 Bft) 100,00 %
24.07.2023 22:12 16,8 C 16,1 C 12,2 C 94 % 1005,9 hPa 0,0 l/m 0 min 0 min 0 W/m 3,2 km/h (1 Bft) 100,00 %
24.07.2023 22:14 16,8 C 16,1 C 11,7 C 94 % 1006,0 hPa 0,0 l/m 0 min 0 min 0 W/m 3,2 km/h (1 Bft) 100,00 %
24.07.2023 22:16 16,9 C 16,1 C 11,7 C 94 % 1005,9 hPa 0,0 l/m 0 min 0 min 0 W/m 3,2 km/h (1 Bft) 100,00 %
24.07.2023 22:18 16,9 C 16,1 C 11,7 C 94 % 1006,0 hPa 0,0 l/m 0 min 0 min 0 W/m 3,2 km/h (1 Bft) 100,00 %
24.07.2023 22:20 16,9 C 16,1 C 11,7 C 95 % 1006,1 hPa 0,0 l/m 0 min 0 min 0 W/m 6,4 km/h (2 Bft) 100,00 %
24.07.2023 22:22 16,9 C 16,1 C 12,2 C 95 % 1006,1 hPa 0,0 l/m 0 min 0 min 0 W/m 3,2 km/h (1 Bft) 97,87 %
24.07.2023 22:24 16,8 C 16,1 C 12,2 C 95 % 1006,1 hPa 0,0 l/m 0 min 0 min 0 W/m 6,4 km/h (2 Bft) 97,83 %
24.07.2023 22:26 16,9 C 16,1 C 12,2 C 95 % 1006,1 hPa 0,0 l/m 0 min 0 min 0 W/m 3,2 km/h (1 Bft) 97,87 %
24.07.2023 22:28 16,9 C 16,1 C 12,2 C 95 % 1006,1 hPa 0,0 l/m 0 min 0 min 0 W/m 3,2 km/h (1 Bft) 100,00 %
24.07.2023 22:30 16,9 C 16,1 C 12,2 C 95 % 1006,1 hPa 0,0 l/m 0 min 0 min 0 W/m 19,3 km/h (3 Bft) 100,00 %
24.07.2023 22:32 16,8 C 16,1 C 12,2 C 95 % 1006,1 hPa 0,0 l/m 0 min 0 min 0 W/m 6,4 km/h (2 Bft) 100,00 %
24.07.2023 22:34 16,8 C 16,1 C 12,2 C 94 % 1006,2 hPa 0,0 l/m 0 min 0 min 0 W/m 6,4 km/h (2 Bft) 100,00 %
24.07.2023 22:36 16,7 C 16,1 C 12,2 C 94 % 1006,2 hPa 0,0 l/m 0 min 0 min 0 W/m 12,9 km/h (3 Bft) 100,00 %
24.07.2023 22:38 16,7 C 16,1 C 12,2 C 94 % 1006,2 hPa 0,0 l/m 0 min 0 min 0 W/m 12,9 km/h (3 Bft) 100,00 %
24.07.2023 22:40 16,7 C 16,1 C 12,2 C 94 % 1006,2 hPa 0,0 l/m 0 min 0 min 0 W/m 6,4 km/h (2 Bft) 100,00 %
24.07.2023 22:42 16,6 C 16,1 C 12,2 C 94 % 1006,3 hPa 0,0 l/m 0 min 0 min 0 W/m 12,9 km/h (3 Bft) 97,87 %
24.07.2023 22:44 16,6 C 16,1 C 12,2 C 94 % 1006,3 hPa 0,0 l/m 0 min 0 min 0 W/m 12,9 km/h (3 Bft) 93,62 %
24.07.2023 22:46 16,5 C 15,6 C 12,2 C 94 % 1006,2 hPa 0,0 l/m 0 min 0 min 0 W/m 12,9 km/h (3 Bft) 95,74 %
24.07.2023 22:48 16,4 C 15,6 C 11,7 C 94 % 1006,2 hPa 0,0 l/m 0 min 0 min 0 W/m 12,9 km/h (3 Bft) 95,74 %
24.07.2023 22:50 16,3 C 15,6 C 11,7 C 94 % 1006,2 hPa 0,0 l/m 0 min 0 min 0 W/m 12,9 km/h (3 Bft) 95,65 %
24.07.2023 22:52 16,3 C 15,6 C 11,7 C 93 % 1006,2 hPa 0,0 l/m 0 min 0 min 0 W/m 6,4 km/h (2 Bft) 91,49 %
24.07.2023 22:54 16,3 C 15,6 C 11,7 C 93 % 1006,3 hPa 0,0 l/m 0 min 0 min 0 W/m 3,2 km/h (1 Bft) 95,74 %
24.07.2023 22:56 16,3 C 15,6 C 11,7 C 93 % 1006,3 hPa 0,0 l/m 0 min 0 min 0 W/m 9,7 km/h (2 Bft) 97,87 %
24.07.2023 22:58 16,2 C 15,6 C 11,7 C 93 % 1006,4 hPa 0,0 l/m 0 min 0 min 0 W/m 6,4 km/h (2 Bft) 95,74 %
24.07.2023 23:00 16,2 C 15,6 C 11,7 C 93 % 1006,3 hPa 0,0 l/m 0 min 0 min 0 W/m 3,2 km/h (1 Bft) 95,74 %
24.07.2023 23:02 16,2 C 15,6 C 11,7 C 93 % 1006,3 hPa 0,0 l/m 0 min 0 min 0 W/m 9,7 km/h (2 Bft) 93,62 %
24.07.2023 23:04 16,2 C 15,6 C 12,2 C 93 % 1006,3 hPa 0,0 l/m 0 min 0 min 0 W/m 6,4 km/h (2 Bft) 95,83 %
24.07.2023 23:06 16,2 C 15,6 C 11,7 C 93 % 1006,3 hPa 0,0 l/m 0 min 0 min 0 W/m 12,9 km/h (3 Bft) 95,74 %
24.07.2023 23:08 16,2 C 15,6 C 11,7 C 93 % 1006,4 hPa 0,0 l/m 0 min 0 min 0 W/m 9,7 km/h (2 Bft) 95,74 %
24.07.2023 23:10 16,2 C 15,6 C 11,7 C 93 % 1006,3 hPa 0,0 l/m 0 min 0 min 0 W/m 6,4 km/h (2 Bft) 91,49 %
24.07.2023 23:12 16,1 C 15,6 C 12,2 C 93 % 1006,4 hPa 0,0 l/m 0 min 0 min 0 W/m 3,2 km/h (1 Bft) 95,74 %
24.07.2023 23:14 16,2 C 15,6 C 12,2 C 93 % 1006,4 hPa 0,0 l/m 0 min 0 min 0 W/m 6,4 km/h (2 Bft) 94,29 %
24.07.2023 23:16 16,1 C 15,6 C 12,2 C 93 % 1006,4 hPa 0,0 l/m 0 min 0 min 0 W/m 6,4 km/h (2 Bft) 95,74 %
24.07.2023 23:18 16,1 C 15,6 C 12,2 C 93 % 1006,4 hPa 0,0 l/m 0 min 0 min 0 W/m 3,2 km/h (1 Bft) 98,21 %
24.07.2023 23:20 16,1 C 15,6 C 12,2 C 93 % 1006,5 hPa 0,0 l/m 0 min 0 min 0 W/m 9,7 km/h (2 Bft) 97,96 %
24.07.2023 23:22 16,1 C 15,6 C 11,7 C 93 % 1006,5 hPa 0,0 l/m 0 min 0 min 0 W/m 3,2 km/h (1 Bft) 95,74 %
24.07.2023 23:24 16,1 C 15,6 C 11,7 C 93 % 1006,5 hPa 0,0 l/m 0 min 0 min 0 W/m 9,7 km/h (2 Bft) 97,87 %
24.07.2023 23:26 16,1 C 15,6 C 11,7 C 93 % 1006,5 hPa 0,0 l/m 0 min 0 min 0 W/m 6,4 km/h (2 Bft) 93,62 %
24.07.2023 23:28 16,1 C 15,6 C 11,7 C 93 % 1006,5 hPa 0,0 l/m 0 min 0 min 0 W/m 6,4 km/h (2 Bft) 95,74 %
24.07.2023 23:30 16,1 C 15,6 C 11,7 C 93 % 1006,5 hPa 0,0 l/m 0 min 0 min 0 W/m 3,2 km/h (1 Bft) 95,74 %
24.07.2023 23:32 16,1 C 15,6 C 11,7 C 93 % 1006,6 hPa 0,0 l/m 0 min 0 min 0 W/m 6,4 km/h (2 Bft) 93,48 %
24.07.2023 23:34 16,1 C 15,6 C 11,7 C 93 % 1006,6 hPa 0,0 l/m 0 min 0 min 0 W/m 6,4 km/h (2 Bft) 93,62 %
24.07.2023 23:36 16,1 C 15,6 C 11,7 C 93 % 1006,6 hPa 0,0 l/m 0 min 0 min 0 W/m 6,4 km/h (2 Bft) 97,87 %
24.07.2023 23:38 16,1 C 15,6 C 11,7 C 93 % 1006,6 hPa 0,0 l/m 0 min 0 min 0 W/m 6,4 km/h (2 Bft) 97,87 %
24.07.2023 23:40 16,0 C 15,6 C 11,7 C 93 % 1006,6 hPa 0,0 l/m 0 min 0 min 0 W/m 6,4 km/h (2 Bft) 97,87 %
24.07.2023 23:42 16,0 C 15,6 C 11,7 C 93 % 1006,6 hPa 0,0 l/m 0 min 0 min 0 W/m 3,2 km/h (1 Bft) 97,87 %
24.07.2023 23:44 16,0 C 15,6 C 11,7 C 93 % 1006,6 hPa 0,0 l/m 0 min 0 min 0 W/m 3,2 km/h (1 Bft) 94,29 %
24.07.2023 23:46 16,0 C 15,6 C 11,7 C 93 % 1006,6 hPa 0,0 l/m 0 min 0 min 0 W/m 6,4 km/h (2 Bft) 95,74 %
24.07.2023 23:48 16,0 C 15,6 C 11,7 C 93 % 1006,6 hPa 0,0 l/m 0 min 0 min 0 W/m 3,2 km/h (1 Bft) 97,87 %
24.07.2023 23:50 15,9 C 15,6 C 11,7 C 93 % 1006,6 hPa 0,0 l/m 0 min 0 min 0 W/m 3,2 km/h (1 Bft) 98,11 %
24.07.2023 23:52 15,9 C 15,6 C 11,7 C 93 % 1006,5 hPa 0,0 l/m 0 min 0 min 0 W/m 0,0 km/h (0 Bft) 95,74 %
24.07.2023 23:54 15,9 C 15,6 C 11,7 C 93 % 1006,5 hPa 0,0 l/m 0 min 0 min 0 W/m 0,0 km/h (0 Bft) 98,00 %
24.07.2023 23:56 15,9 C 15,6 C 11,7 C 93 % 1006,6 hPa 0,0 l/m 0 min 0 min 0 W/m 6,4 km/h (2 Bft) 95,74 %
24.07.2023 23:58 15,9 C 15,6 C 11,7 C 93 % 1006,5 hPa 0,0 l/m 0 min 0 min 0 W/m 6,4 km/h (2 Bft) 97,92 %
_ Min-Zeit 23:50 18:52 18:44 17:00 16:34 - - - - 01:56 14:32
Minimum _ 15,9 C 15,6 C 11,1 C 74 % 1002,3 hPa - - - - 0,0 km/h (0 Bft) 39,39 %
_ Max-Zeit 16:56 15:16 16:54 07:15 00:10 13:12 08:04 07:15 13:58 08:16 00:58
Maximum _ 22,1 C 27,2 C 18,3 C 99 % 1007,1 hPa 1,0 l/m 2 min 5 min 1088 W/m 29,0 km/h
SO (5 Bft)
100,00 %
Durchschnitt _ 18,3 C 18,1 C 13,6 C 93 % 1004,3 hPa #11,8 l/m #2:56 h #4:48 h 198 W/m 9,6 km/h (2 Bft) 97,11 %
© 2023 W. Hausmann